Time,TemperatureF,DewpointF,PressureIn,WindDirection,WindDirectionDegrees,WindSpeedMPH,WindSpeedGustMPH,Humidity,HourlyPrecipIn,Conditions,Clouds,dailyrainin,SoftwareType,DateUTC
2013-01-27 00:00:00,20.9,16.8,30.48,NW,306,0.0,0.0,84,0.00,,,0.00,Wunderground v.1.15,2013-01-27 05:00:00,
2013-01-27 00:01:00,20.9,17.1,30.48,NW,306,0.0,6.0,85,0.00,,,0.00,Wunderground v.1.15,2013-01-27 05:01:00,
2013-01-27 00:05:00,20.9,17.1,30.48,NW,306,0.0,6.0,85,0.00,,,0.00,Wunderground v.1.15,2013-01-27 05:05:00,
2013-01-27 00:07:00,20.9,17.1,30.48,NW,306,0.0,6.0,85,0.00,,,0.00,Wunderground v.1.15,2013-01-27 05:07:00,
2013-01-27 00:08:00,20.9,17.1,30.48,NW,307,0.0,6.0,85,0.00,,,0.00,Wunderground v.1.15,2013-01-27 05:08:00,
2013-01-27 00:09:00,20.8,17.0,30.48,NW,307,0.0,6.0,85,0.00,,,0.00,Wunderground v.1.15,2013-01-27 05:09:00,
2013-01-27 00:13:00,20.8,17.3,30.48,NW,307,0.0,0.0,86,0.00,,,0.00,Wunderground v.1.15,2013-01-27 05:13:00,
2013-01-27 00:15:00,20.8,17.3,30.48,NW,306,0.0,0.0,86,0.00,,,0.00,Wunderground v.1.15,2013-01-27 05:15:00,
2013-01-27 00:17:00,20.8,17.3,30.48,NW,307,0.0,0.0,86,0.00,,,0.00,Wunderground v.1.15,2013-01-27 05:17:00,
2013-01-27 00:19:00,20.8,17.3,30.48,NW,307,0.0,0.0,86,0.00,,,0.00,Wunderground v.1.15,2013-01-27 05:19:00,
2013-01-27 00:23:00,20.8,17.3,30.48,NW,315,0.0,1.0,86,0.00,,,0.00,Wunderground v.1.15,2013-01-27 05:23:00,
2013-01-27 00:24:00,20.8,17.3,30.48,NW,316,0.0,1.0,86,0.00,,,0.00,Wunderground v.1.15,2013-01-27 05:24:00,
2013-01-27 00:25:00,20.8,17.3,30.48,NW,315,0.0,1.0,86,0.00,,,0.00,Wunderground v.1.15,2013-01-27 05:25:00,
2013-01-27 00:26:00,20.8,17.3,30.48,NW,315,0.0,1.0,86,0.00,,,0.00,Wunderground v.1.15,2013-01-27 05:26:00,
2013-01-27 00:31:00,20.8,17.3,30.48,NW,316,0.0,0.0,86,0.00,,,0.00,Wunderground v.1.15,2013-01-27 05:31:00,
2013-01-27 00:33:00,20.8,17.3,30.48,NW,316,0.0,0.0,86,0.00,,,0.00,Wunderground v.1.15,2013-01-27 05:33:00,
2013-01-27 00:35:00,20.8,17.3,30.48,NW,316,0.0,0.0,86,0.00,,,0.00,Wunderground v.1.15,2013-01-27 05:35:00,
2013-01-27 00:36:00,20.8,17.3,30.49,NW,315,0.0,0.0,86,0.00,,,0.00,Wunderground v.1.15,2013-01-27 05:36:00,
2013-01-27 00:39:00,20.8,17.3,30.49,NW,319,0.0,1.0,86,0.00,,,0.00,Wunderground v.1.15,2013-01-27 05:39:00,
2013-01-27 00:43:00,20.8,17.3,30.49,NW,321,0.0,1.0,86,0.00,,,0.00,Wunderground v.1.15,2013-01-27 05:43:00,
2013-01-27 00:44:00,20.8,17.3,30.49,NW,321,0.0,1.0,86,0.00,,,0.00,Wunderground v.1.15,2013-01-27 05:44:00,
2013-01-27 00:45:00,20.8,17.3,30.49,NW,321,0.0,1.0,86,0.00,,,0.00,Wunderground v.1.15,2013-01-27 05:45:00,
2013-01-27 00:49:00,20.8,17.3,30.49,NW,321,0.0,1.0,86,0.00,,,0.00,Wunderground v.1.15,2013-01-27 05:49:00,
2013-01-27 00:50:00,20.8,17.3,30.49,NW,321,0.0,0.0,86,0.00,,,0.00,Wunderground v.1.15,2013-01-27 05:50:00,
2013-01-27 00:54:00,20.9,17.4,30.49,NW,321,0.0,0.0,86,0.00,,,0.00,Wunderground v.1.15,2013-01-27 05:54:00,
2013-01-27 00:56:00,20.9,17.4,30.49,NNW,336,0.0,4.0,86,0.00,,,0.00,Wunderground v.1.15,2013-01-27 05:56:00,
2013-01-27 01:00:00,20.9,17.1,30.49,WNW,291,1.0,1.0,85,0.00,,,0.00,Wunderground v.1.15,2013-01-27 06:00:00,
2013-01-27 01:01:00,21.0,17.2,30.49,WNW,291,1.0,3.0,85,0.00,,,0.00,Wunderground v.1.15,2013-01-27 06:01:00,
2013-01-27 01:04:00,21.0,17.2,30.49,WNW,296,1.0,3.0,85,0.00,,,0.00,Wunderground v.1.15,2013-01-27 06:04:00,
2013-01-27 01:07:00,21.0,17.2,30.49,NW,307,0.0,3.0,85,0.00,,,0.00,Wunderground v.1.15,2013-01-27 06:07:00,
2013-01-27 01:09:00,21.0,17.2,30.49,NNW,333,0.0,4.0,85,0.00,,,0.00,Wunderground v.1.15,2013-01-27 06:09:00,
2013-01-27 01:11:00,21.0,17.2,30.49,NNW,331,0.0,0.0,85,0.00,,,0.00,Wunderground v.1.15,2013-01-27 06:11:00,
2013-01-27 01:14:00,21.0,16.9,30.49,NW,321,1.0,2.0,84,0.00,,,0.00,Wunderground v.1.15,2013-01-27 06:14:00,
2013-01-27 01:15:00,21.0,16.9,30.49,NW,311,1.0,7.0,84,0.00,,,0.00,Wunderground v.1.15,2013-01-27 06:15:00,
2013-01-27 01:16:00,21.0,16.9,30.49,WSW,254,1.0,7.0,84,0.00,,,0.00,Wunderground v.1.15,2013-01-27 06:16:00,
2013-01-27 01:20:00,21.0,16.9,30.50,West,273,1.0,1.0,84,0.00,,,0.00,Wunderground v.1.15,2013-01-27 06:20:00,
2013-01-27 01:21:00,21.0,16.9,30.50,West,273,1.0,1.0,84,0.00,,,0.00,Wunderground v.1.15,2013-01-27 06:21:00,
2013-01-27 01:22:00,21.0,16.9,30.50,West,274,1.0,1.0,84,0.00,,,0.00,Wunderground v.1.15,2013-01-27 06:22:00,
2013-01-27 01:24:00,21.0,16.9,30.50,West,273,0.0,1.0,84,0.00,,,0.00,Wunderground v.1.15,2013-01-27 06:24:00,
2013-01-27 01:27:00,21.0,16.9,30.50,West,274,0.0,1.0,84,0.00,,,0.00,Wunderground v.1.15,2013-01-27 06:27:00,
2013-01-27 01:30:00,21.0,16.9,30.50,West,280,0.0,0.0,84,0.00,,,0.00,Wunderground v.1.15,2013-01-27 06:30:00,
2013-01-27 01:32:00,21.0,16.9,30.50,West,281,0.0,5.0,84,0.00,,,0.00,Wunderground v.1.15,2013-01-27 06:32:00,
2013-01-27 01:35:00,20.9,16.8,30.50,West,281,0.0,5.0,84,0.00,,,0.00,Wunderground v.1.15,2013-01-27 06:35:00,
2013-01-27 01:36:00,20.9,16.8,30.50,NNW,336,0.0,5.0,84,0.00,,,0.00,Wunderground v.1.15,2013-01-27 06:36:00,
2013-01-27 01:38:00,20.9,16.5,30.50,NNW,334,0.0,5.0,83,0.00,,,0.00,Wunderground v.1.15,2013-01-27 06:38:00,
2013-01-27 01:39:00,20.9,16.5,30.50,NNW,335,0.0,5.0,83,0.00,,,0.00,Wunderground v.1.15,2013-01-27 06:39:00,
2013-01-27 01:40:00,20.9,16.8,30.50,NNW,337,0.0,2.0,84,0.00,,,0.00,Wunderground v.1.15,2013-01-27 06:40:00,
2013-01-27 01:42:00,20.9,16.5,30.50,NNW,334,0.0,2.0,83,0.00,,,0.00,Wunderground v.1.15,2013-01-27 06:42:00,
2013-01-27 01:45:00,20.8,16.5,30.50,NNW,334,0.0,2.0,83,0.00,,,0.00,Wunderground v.1.15,2013-01-27 06:45:00,
2013-01-27 01:46:00,20.8,16.5,30.50,NNW,334,0.0,2.0,83,0.00,,,0.00,Wunderground v.1.15,2013-01-27 06:46:00,
2013-01-27 01:52:00,20.7,16.4,30.50,WNW,303,0.0,1.0,83,0.00,,,0.00,Wunderground v.1.15,2013-01-27 06:52:00,
2013-01-27 01:53:00,20.7,16.4,30.50,WNW,303,0.0,1.0,83,0.00,,,0.00,Wunderground v.1.15,2013-01-27 06:53:00,
2013-01-27 01:55:00,20.7,16.4,30.50,NW,325,1.0,2.0,83,0.00,,,0.00,Wunderground v.1.15,2013-01-27 06:55:00,
2013-01-27 01:56:00,20.7,16.4,30.50,NW,309,1.0,2.0,83,0.00,,,0.00,Wunderground v.1.15,2013-01-27 06:56:00,
2013-01-27 01:59:00,20.6,16.3,30.50,NW,309,1.0,2.0,83,0.00,,,0.00,Wunderground v.1.15,2013-01-27 06:59:00,
2013-01-27 02:02:00,20.6,16.3,30.50,WNW,300,1.0,7.0,83,0.00,,,0.00,Wunderground v.1.15,2013-01-27 07:02:00,
2013-01-27 02:04:00,20.6,16.3,30.50,NW,323,1.0,7.0,83,0.00,,,0.00,Wunderground v.1.15,2013-01-27 07:04:00,
2013-01-27 02:05:00,20.6,16.5,30.50,NNW,348,1.0,7.0,84,0.00,,,0.00,Wunderground v.1.15,2013-01-27 07:05:00,
2013-01-27 02:07:00,20.6,16.5,30.50,WNW,303,1.0,7.0,84,0.00,,,0.00,Wunderground v.1.15,2013-01-27 07:07:00,
2013-01-27 02:09:00,20.6,16.5,30.50,NW,319,1.0,7.0,84,0.00,,,0.00,Wunderground v.1.15,2013-01-27 07:09:00,
2013-01-27 02:14:00,20.6,16.5,30.51,NNW,342,1.0,1.0,84,0.00,,,0.00,Wunderground v.1.15,2013-01-27 07:14:00,
2013-01-27 02:16:00,20.6,16.5,30.51,NNW,342,0.0,1.0,84,0.00,,,0.00,Wunderground v.1.15,2013-01-27 07:16:00,
2013-01-27 02:17:00,20.6,16.5,30.51,NNW,341,0.0,1.0,84,0.00,,,0.00,Wunderground v.1.15,2013-01-27 07:17:00,
2013-01-27 02:24:00,20.6,16.5,30.51,NW,326,0.0,2.0,84,0.00,,,0.00,Wunderground v.1.15,2013-01-27 07:24:00,
2013-01-27 02:26:00,20.5,16.4,30.52,NW,325,0.0,2.0,84,0.00,,,0.00,Wunderground v.1.15,2013-01-27 07:26:00,
2013-01-27 02:29:00,20.6,16.5,30.52,NNW,327,1.0,2.0,84,0.00,,,0.00,Wunderground v.1.15,2013-01-27 07:29:00,
2013-01-27 02:30:00,20.6,16.5,30.52,NW,325,1.0,1.0,84,0.00,,,0.00,Wunderground v.1.15,2013-01-27 07:30:00,
2013-01-27 02:34:00,20.6,16.5,30.52,NW,311,1.0,6.0,84,0.00,,,0.00,Wunderground v.1.15,2013-01-27 07:34:00,
2013-01-27 02:35:00,20.6,16.5,30.52,WNW,300,1.0,6.0,84,0.00,,,0.00,Wunderground v.1.15,2013-01-27 07:35:00,
2013-01-27 02:36:00,20.6,16.5,30.52,NNW,327,1.0,6.0,84,0.00,,,0.00,Wunderground v.1.15,2013-01-27 07:36:00,
2013-01-27 02:39:00,20.5,16.4,30.52,NNW,328,0.0,6.0,84,0.00,,,0.00,Wunderground v.1.15,2013-01-27 07:39:00,
2013-01-27 02:41:00,20.5,16.4,30.52,NNW,331,0.0,1.0,84,0.00,,,0.00,Wunderground v.1.15,2013-01-27 07:41:00,
2013-01-27 02:44:00,20.5,16.2,30.52,NNW,329,0.0,1.0,83,0.00,,,0.00,Wunderground v.1.15,2013-01-27 07:44:00,
2013-01-27 02:48:00,20.5,16.2,30.52,NNW,328,0.0,3.0,83,0.00,,,0.00,Wunderground v.1.15,2013-01-27 07:48:00,
2013-01-27 02:49:00,20.5,16.2,30.52,NNW,328,0.0,3.0,83,0.00,,,0.00,Wunderground v.1.15,2013-01-27 07:49:00,
2013-01-27 02:52:00,20.4,16.1,30.52,NNW,328,0.0,0.0,83,0.00,,,0.00,Wunderground v.1.15,2013-01-27 07:52:00,
2013-01-27 02:56:00,20.4,16.1,30.52,NNW,328,0.0,0.0,83,0.00,,,0.00,Wunderground v.1.15,2013-01-27 07:56:00,
2013-01-27 02:57:00,20.3,16.0,30.52,NW,324,0.0,0.0,83,0.00,,,0.00,Wunderground v.1.15,2013-01-27 07:57:00,
2013-01-27 02:58:00,20.3,16.0,30.52,NW,324,0.0,0.0,83,0.00,,,0.00,Wunderground v.1.15,2013-01-27 07:58:00,
2013-01-27 03:01:00,20.2,15.9,30.52,NW,324,0.0,6.0,83,0.00,,,0.00,Wunderground v.1.15,2013-01-27 08:01:00,
2013-01-27 03:04:00,20.2,15.9,30.52,NW,323,0.0,6.0,83,0.00,,,0.00,Wunderground v.1.15,2013-01-27 08:04:00,
2013-01-27 03:06:00,20.1,15.8,30.52,NW,324,0.0,6.0,83,0.00,,,0.00,Wunderground v.1.15,2013-01-27 08:06:00,
2013-01-27 03:09:00,20.0,15.7,30.51,NW,323,0.0,6.0,83,0.00,,,0.00,Wunderground v.1.15,2013-01-27 08:09:00,
2013-01-27 03:11:00,20.0,15.7,30.51,NW,323,0.0,0.0,83,0.00,,,0.00,Wunderground v.1.15,2013-01-27 08:11:00,
2013-01-27 03:12:00,20.0,15.7,30.51,NW,323,0.0,0.0,83,0.00,,,0.00,Wunderground v.1.15,2013-01-27 08:12:00,
2013-01-27 03:14:00,20.0,15.7,30.51,NW,323,0.0,0.0,83,0.00,,,0.00,Wunderground v.1.15,2013-01-27 08:14:00,
2013-01-27 03:17:00,19.9,15.6,30.51,NW,321,0.0,0.0,83,0.00,,,0.00,Wunderground v.1.15,2013-01-27 08:17:00,
2013-01-27 03:20:00,19.9,15.6,30.51,WNW,288,0.0,0.0,83,0.00,,,0.00,Wunderground v.1.15,2013-01-27 08:20:00,
2013-01-27 03:23:00,19.9,15.6,30.51,WNW,288,0.0,0.0,83,0.00,,,0.00,Wunderground v.1.15,2013-01-27 08:23:00,
2013-01-27 03:24:00,19.9,15.6,30.51,WNW,287,0.0,0.0,83,0.00,,,0.00,Wunderground v.1.15,2013-01-27 08:24:00,
2013-01-27 03:27:00,19.8,15.5,30.51,WNW,287,0.0,0.0,83,0.00,,,0.00,Wunderground v.1.15,2013-01-27 08:27:00,
2013-01-27 03:28:00,19.8,15.5,30.51,WNW,288,0.0,0.0,83,0.00,,,0.00,Wunderground v.1.15,2013-01-27 08:28:00,
2013-01-27 03:31:00,19.7,15.4,30.51,WNW,288,0.0,4.0,83,0.00,,,0.00,Wunderground v.1.15,2013-01-27 08:31:00,
2013-01-27 03:34:00,19.7,15.4,30.51,WNW,288,0.0,4.0,83,0.00,,,0.00,Wunderground v.1.15,2013-01-27 08:34:00,
2013-01-27 03:39:00,19.6,15.3,30.52,WNW,288,0.0,4.0,83,0.00,,,0.00,Wunderground v.1.15,2013-01-27 08:39:00,
2013-01-27 03:41:00,19.4,15.1,30.52,WNW,288,0.0,0.0,83,0.00,,,0.00,Wunderground v.1.15,2013-01-27 08:41:00,
2013-01-27 03:42:00,19.3,15.0,30.52,WNW,288,0.0,0.0,83,0.00,,,0.00,Wunderground v.1.15,2013-01-27 08:42:00,
2013-01-27 03:43:00,19.2,14.9,30.52,WNW,287,0.0,0.0,83,0.00,,,0.00,Wunderground v.1.15,2013-01-27 08:43:00,
2013-01-27 03:48:00,19.0,15.0,30.52,WNW,288,0.0,0.0,84,0.00,,,0.00,Wunderground v.1.15,2013-01-27 08:48:00,
2013-01-27 03:49:00,19.0,15.0,30.52,WNW,288,0.0,0.0,84,0.00,,,0.00,Wunderground v.1.15,2013-01-27 08:49:00,
2013-01-27 03:50:00,18.9,14.9,30.52,WNW,287,0.0,0.0,84,0.00,,,0.00,Wunderground v.1.15,2013-01-27 08:50:00,
2013-01-27 03:54:00,18.8,14.8,30.52,WNW,288,0.0,0.0,84,0.00,,,0.00,Wunderground v.1.15,2013-01-27 08:54:00,
2013-01-27 03:56:00,18.8,14.8,30.52,WNW,288,0.0,0.0,84,0.00,,,0.00,Wunderground v.1.15,2013-01-27 08:56:00,
2013-01-27 03:57:00,18.8,14.8,30.52,WNW,288,0.0,0.0,84,0.00,,,0.00,Wunderground v.1.15,2013-01-27 08:57:00,
2013-01-27 03:58:00,18.8,14.8,30.52,WNW,288,0.0,0.0,84,0.00,,,0.00,Wunderground v.1.15,2013-01-27 08:58:00,
2013-01-27 04:00:00,18.8,14.8,30.52,WNW,288,0.0,0.0,84,0.00,,,0.00,Wunderground v.1.15,2013-01-27 09:00:00,
2013-01-27 04:02:00,18.8,14.8,30.52,WNW,287,0.0,3.0,84,0.00,,,0.00,Wunderground v.1.15,2013-01-27 09:02:00,
2013-01-27 04:05:00,18.8,14.8,30.52,WNW,287,0.0,3.0,84,0.00,,,0.00,Wunderground v.1.15,2013-01-27 09:05:00,
2013-01-27 04:06:00,18.8,14.8,30.52,WNW,288,0.0,3.0,84,0.00,,,0.00,Wunderground v.1.15,2013-01-27 09:06:00,
2013-01-27 04:08:00,18.8,14.8,30.51,WNW,287,0.0,3.0,84,0.00,,,0.00,Wunderground v.1.15,2013-01-27 09:08:00,
2013-01-27 04:10:00,18.7,14.7,30.51,WNW,287,0.0,0.0,84,0.00,,,0.00,Wunderground v.1.15,2013-01-27 09:10:00,
2013-01-27 04:14:00,18.6,14.6,30.52,WNW,288,0.0,0.0,84,0.00,,,0.00,Wunderground v.1.15,2013-01-27 09:14:00,
2013-01-27 04:15:00,18.5,14.5,30.52,WNW,288,0.0,0.0,84,0.00,,,0.00,Wunderground v.1.15,2013-01-27 09:15:00,
2013-01-27 04:16:00,18.5,14.5,30.52,WNW,288,0.0,0.0,84,0.00,,,0.00,Wunderground v.1.15,2013-01-27 09:16:00,
2013-01-27 04:19:00,18.4,14.4,30.52,WNW,287,0.0,0.0,84,0.00,,,0.00,Wunderground v.1.15,2013-01-27 09:19:00,
2013-01-27 04:20:00,18.3,14.3,30.52,WNW,287,0.0,0.0,84,0.00,,,0.00,Wunderground v.1.15,2013-01-27 09:20:00,
2013-01-27 04:23:00,18.2,14.2,30.52,WNW,288,0.0,0.0,84,0.00,,,0.00,Wunderground v.1.15,2013-01-27 09:23:00,
2013-01-27 04:24:00,18.2,14.2,30.52,WNW,288,0.0,0.0,84,0.00,,,0.00,Wunderground v.1.15,2013-01-27 09:24:00,
2013-01-27 04:25:00,18.2,14.2,30.52,WNW,288,0.0,0.0,84,0.00,,,0.00,Wunderground v.1.15,2013-01-27 09:25:00,
2013-01-27 04:27:00,18.1,14.1,30.52,WNW,288,0.0,0.0,84,0.00,,,0.00,Wunderground v.1.15,2013-01-27 09:27:00,
2013-01-27 04:29:00,18.0,14.0,30.52,WNW,288,0.0,0.0,84,0.00,,,0.00,Wunderground v.1.15,2013-01-27 09:29:00,
2013-01-27 04:30:00,18.0,14.0,30.52,WNW,288,0.0,0.0,84,0.00,,,0.00,Wunderground v.1.15,2013-01-27 09:30:00,
2013-01-27 04:33:00,18.0,14.0,30.52,WNW,288,0.0,0.0,84,0.00,,,0.00,Wunderground v.1.15,2013-01-27 09:33:00,
2013-01-27 04:34:00,18.0,14.0,30.52,WNW,287,0.0,0.0,84,0.00,,,0.00,Wunderground v.1.15,2013-01-27 09:34:00,
2013-01-27 04:39:00,17.9,13.9,30.52,WNW,287,0.0,0.0,84,0.00,,,0.00,Wunderground v.1.15,2013-01-27 09:39:00,
2013-01-27 04:40:00,17.8,13.8,30.52,WNW,288,0.0,0.0,84,0.00,,,0.00,Wunderground v.1.15,2013-01-27 09:40:00,
2013-01-27 04:41:00,17.8,14.1,30.52,WNW,288,0.0,0.0,85,0.00,,,0.00,Wunderground v.1.15,2013-01-27 09:41:00,
2013-01-27 04:45:00,17.8,14.1,30.52,WNW,288,0.0,0.0,85,0.00,,,0.00,Wunderground v.1.15,2013-01-27 09:45:00,
2013-01-27 04:49:00,17.8,14.1,30.52,WNW,288,0.0,0.0,85,0.00,,,0.00,Wunderground v.1.15,2013-01-27 09:49:00,
2013-01-27 04:54:00,17.8,14.1,30.52,WNW,288,0.0,0.0,85,0.00,,,0.00,Wunderground v.1.15,2013-01-27 09:54:00,
2013-01-27 04:55:00,17.8,14.1,30.52,WNW,288,0.0,0.0,85,0.00,,,0.00,Wunderground v.1.15,2013-01-27 09:55:00,
2013-01-27 04:56:00,17.7,14.0,30.52,WNW,288,0.0,0.0,85,0.00,,,0.00,Wunderground v.1.15,2013-01-27 09:56:00,
2013-01-27 04:59:00,17.6,13.9,30.52,WNW,288,0.0,0.0,85,0.00,,,0.00,Wunderground v.1.15,2013-01-27 09:59:00,
2013-01-27 05:00:00,17.6,13.9,30.52,WNW,288,0.0,0.0,85,0.00,,,0.00,Wunderground v.1.15,2013-01-27 10:00:00,
2013-01-27 05:02:00,17.5,13.8,30.52,WNW,288,0.0,0.0,85,0.00,,,0.00,Wunderground v.1.15,2013-01-27 10:02:00,
2013-01-27 05:03:00,17.5,13.8,30.52,WNW,288,0.0,0.0,85,0.00,,,0.00,Wunderground v.1.15,2013-01-27 10:03:00,
2013-01-27 05:05:00,17.4,13.7,30.52,WNW,288,0.0,0.0,85,0.00,,,0.00,Wunderground v.1.15,2013-01-27 10:05:00,
2013-01-27 05:08:00,17.4,13.7,30.52,WNW,288,0.0,0.0,85,0.00,,,0.00,Wunderground v.1.15,2013-01-27 10:08:00,
2013-01-27 05:09:00,17.3,13.6,30.52,WNW,288,0.0,0.0,85,0.00,,,0.00,Wunderground v.1.15,2013-01-27 10:09:00,
2013-01-27 05:10:00,17.2,13.5,30.52,WNW,288,0.0,0.0,85,0.00,,,0.00,Wunderground v.1.15,2013-01-27 10:10:00,
2013-01-27 05:12:00,17.1,13.4,30.52,WNW,288,0.0,0.0,85,0.00,,,0.00,Wunderground v.1.15,2013-01-27 10:12:00,
2013-01-27 05:14:00,17.0,13.3,30.52,WNW,288,0.0,0.0,85,0.00,,,0.00,Wunderground v.1.15,2013-01-27 10:14:00,
2013-01-27 05:15:00,16.9,13.2,30.52,WNW,288,0.0,0.0,85,0.00,,,0.00,Wunderground v.1.15,2013-01-27 10:15:00,
2013-01-27 05:20:00,16.7,13.0,30.52,WNW,288,0.0,0.0,85,0.00,,,0.00,Wunderground v.1.15,2013-01-27 10:20:00,
2013-01-27 05:23:00,16.6,12.9,30.52,WNW,288,0.0,0.0,85,0.00,,,0.00,Wunderground v.1.15,2013-01-27 10:23:00,
2013-01-27 05:25:00,16.5,12.8,30.52,WNW,288,0.0,0.0,85,0.00,,,0.00,Wunderground v.1.15,2013-01-27 10:25:00,
2013-01-27 05:29:00,16.6,13.1,30.52,WNW,288,0.0,0.0,86,0.00,,,0.00,Wunderground v.1.15,2013-01-27 10:29:00,
2013-01-27 05:30:00,16.6,13.1,30.52,WNW,288,0.0,0.0,86,0.00,,,0.00,Wunderground v.1.15,2013-01-27 10:30:00,
2013-01-27 05:31:00,16.7,13.2,30.52,WNW,288,0.0,1.0,86,0.00,,,0.00,Wunderground v.1.15,2013-01-27 10:31:00,
2013-01-27 05:35:00,17.0,13.5,30.52,WNW,288,0.0,1.0,86,0.00,,,0.00,Wunderground v.1.15,2013-01-27 10:35:00,
2013-01-27 05:36:00,17.0,13.5,30.52,WNW,288,0.0,1.0,86,0.00,,,0.00,Wunderground v.1.15,2013-01-27 10:36:00,
2013-01-27 05:38:00,17.2,13.7,30.52,NNW,330,0.0,1.0,86,0.00,,,0.00,Wunderground v.1.15,2013-01-27 10:38:00,
2013-01-27 05:42:00,17.4,13.9,30.53,NNW,330,0.0,0.0,86,0.00,,,0.00,Wunderground v.1.15,2013-01-27 10:42:00,
2013-01-27 05:44:00,17.5,14.0,30.53,NNW,330,0.0,0.0,86,0.00,,,0.00,Wunderground v.1.15,2013-01-27 10:44:00,
2013-01-27 05:47:00,17.6,14.1,30.53,NNW,330,0.0,0.0,86,0.00,,,0.00,Wunderground v.1.15,2013-01-27 10:47:00,
2013-01-27 05:48:00,17.7,14.2,30.53,NNW,329,0.0,0.0,86,0.00,,,0.00,Wunderground v.1.15,2013-01-27 10:48:00,
2013-01-27 05:50:00,17.8,14.3,30.53,NNW,330,0.0,0.0,86,0.00,,,0.00,Wunderground v.1.15,2013-01-27 10:50:00,
2013-01-27 05:54:00,17.9,14.4,30.53,NNW,330,0.0,0.0,86,0.00,,,0.00,Wunderground v.1.15,2013-01-27 10:54:00,
2013-01-27 05:55:00,18.0,14.5,30.54,NNW,330,0.0,0.0,86,0.00,,,0.00,Wunderground v.1.15,2013-01-27 10:55:00,
2013-01-27 05:56:00,18.0,14.5,30.54,NNW,330,0.0,0.0,86,0.00,,,0.00,Wunderground v.1.15,2013-01-27 10:56:00,
2013-01-27 06:00:00,18.1,14.6,30.54,NNW,330,0.0,0.0,86,0.00,,,0.00,Wunderground v.1.15,2013-01-27 11:00:00,
2013-01-27 06:01:00,18.1,14.6,30.54,NNW,330,0.0,0.0,86,0.00,,,0.00,Wunderground v.1.15,2013-01-27 11:01:00,
2013-01-27 06:02:00,18.1,14.6,30.54,NNW,330,0.0,0.0,86,0.00,,,0.00,Wunderground v.1.15,2013-01-27 11:02:00,
2013-01-27 06:06:00,18.2,14.7,30.54,NW,318,0.0,1.0,86,0.00,,,0.00,Wunderground v.1.15,2013-01-27 11:06:00,
2013-01-27 06:08:00,18.2,14.7,30.54,NW,319,0.0,1.0,86,0.00,,,0.00,Wunderground v.1.15,2013-01-27 11:08:00,
2013-01-27 06:10:00,18.2,14.7,30.54,NW,319,0.0,0.0,86,0.00,,,0.00,Wunderground v.1.15,2013-01-27 11:10:00,
2013-01-27 06:11:00,18.2,14.7,30.54,NW,318,0.0,0.0,86,0.00,,,0.00,Wunderground v.1.15,2013-01-27 11:11:00,
2013-01-27 06:12:00,18.1,14.6,30.53,NW,319,0.0,0.0,86,0.00,,,0.00,Wunderground v.1.15,2013-01-27 11:12:00,
2013-01-27 06:15:00,18.0,14.5,30.54,NW,319,0.0,0.0,86,0.00,,,0.00,Wunderground v.1.15,2013-01-27 11:15:00,
2013-01-27 06:17:00,18.0,14.5,30.54,NW,319,0.0,0.0,86,0.00,,,0.00,Wunderground v.1.15,2013-01-27 11:17:00,
2013-01-27 06:19:00,17.9,14.4,30.54,NW,318,0.0,0.0,86,0.00,,,0.00,Wunderground v.1.15,2013-01-27 11:19:00,
2013-01-27 06:20:00,17.8,14.3,30.54,NW,319,0.0,0.0,86,0.00,,,0.00,Wunderground v.1.15,2013-01-27 11:20:00,
2013-01-27 06:21:00,17.8,14.3,30.54,NW,319,0.0,0.0,86,0.00,,,0.00,Wunderground v.1.15,2013-01-27 11:21:00,
2013-01-27 06:23:00,17.7,14.2,30.54,NW,318,0.0,0.0,86,0.00,,,0.00,Wunderground v.1.15,2013-01-27 11:23:00,
2013-01-27 06:26:00,17.6,14.1,30.54,NW,319,0.0,0.0,86,0.00,,,0.00,Wunderground v.1.15,2013-01-27 11:26:00,
2013-01-27 06:27:00,17.5,14.0,30.54,NW,318,0.0,0.0,86,0.00,,,0.00,Wunderground v.1.15,2013-01-27 11:27:00,
2013-01-27 06:29:00,17.6,14.1,30.54,NW,318,0.0,0.0,86,0.00,,,0.00,Wunderground v.1.15,2013-01-27 11:29:00,
2013-01-27 06:30:00,17.6,14.1,30.54,NW,318,0.0,0.0,86,0.00,,,0.00,Wunderground v.1.15,2013-01-27 11:30:00,
2013-01-27 06:32:00,17.6,14.1,30.55,NNW,342,0.0,3.0,86,0.00,,,0.00,Wunderground v.1.15,2013-01-27 11:32:00,
2013-01-27 06:34:00,17.6,14.1,30.55,NNW,342,0.0,3.0,86,0.00,,,0.00,Wunderground v.1.15,2013-01-27 11:34:00,
2013-01-27 06:36:00,17.6,14.1,30.55,NNW,331,0.0,3.0,86,0.00,,,0.00,Wunderground v.1.15,2013-01-27 11:36:00,
2013-01-27 06:40:00,17.6,14.4,30.55,NNW,332,0.0,0.0,87,0.00,,,0.00,Wunderground v.1.15,2013-01-27 11:40:00,
2013-01-27 06:41:00,17.6,14.1,30.55,NNW,332,0.0,0.0,86,0.00,,,0.00,Wunderground v.1.15,2013-01-27 11:41:00,
2013-01-27 06:42:00,17.6,14.1,30.55,NNW,332,0.0,0.0,86,0.00,,,0.00,Wunderground v.1.15,2013-01-27 11:42:00,
2013-01-27 06:44:00,17.6,14.4,30.55,NNW,339,0.0,0.0,87,0.00,,,0.00,Wunderground v.1.15,2013-01-27 11:44:00,
2013-01-27 06:46:00,17.6,14.4,30.55,NNW,339,0.0,0.0,87,0.00,,,0.00,Wunderground v.1.15,2013-01-27 11:46:00,
2013-01-27 06:47:00,17.5,14.3,30.55,NNW,338,0.0,0.0,87,0.00,,,0.00,Wunderground v.1.15,2013-01-27 11:47:00,
2013-01-27 06:49:00,17.5,14.3,30.55,NNW,339,0.0,0.0,87,0.00,,,0.00,Wunderground v.1.15,2013-01-27 11:49:00,
2013-01-27 06:54:00,17.1,13.6,30.55,NNW,348,0.0,0.0,86,0.00,,,0.00,Wunderground v.1.15,2013-01-27 11:54:00,
2013-01-27 06:55:00,17.1,13.9,30.55,NNW,348,0.0,0.0,87,0.00,,,0.00,Wunderground v.1.15,2013-01-27 11:55:00,
2013-01-27 06:56:00,17.0,13.8,30.55,NNW,348,0.0,0.0,87,0.00,,,0.00,Wunderground v.1.15,2013-01-27 11:56:00,
2013-01-27 06:59:00,16.8,13.6,30.55,NNW,348,0.0,0.0,87,0.00,,,0.00,Wunderground v.1.15,2013-01-27 11:59:00,
2013-01-27 07:00:00,16.8,13.6,30.55,NNW,348,0.0,0.0,87,0.00,,,0.00,Wunderground v.1.15,2013-01-27 12:00:00,
2013-01-27 07:02:00,16.8,13.6,30.55,NNW,346,0.0,2.0,87,0.00,,,0.00,Wunderground v.1.15,2013-01-27 12:02:00,
2013-01-27 07:05:00,17.0,13.8,30.55,NNW,345,0.0,2.0,87,0.00,,,0.00,Wunderground v.1.15,2013-01-27 12:05:00,
2013-01-27 07:07:00,17.0,13.8,30.56,NNW,344,0.0,2.0,87,0.00,,,0.00,Wunderground v.1.15,2013-01-27 12:07:00,
2013-01-27 07:08:00,17.1,13.9,30.56,NNW,343,0.0,2.0,87,0.00,,,0.00,Wunderground v.1.15,2013-01-27 12:08:00,
2013-01-27 07:10:00,17.1,13.9,30.56,NNW,346,0.0,0.0,87,0.00,,,0.00,Wunderground v.1.15,2013-01-27 12:10:00,
2013-01-27 07:11:00,17.2,14.0,30.56,NNW,346,0.0,0.0,87,0.00,,,0.00,Wunderground v.1.15,2013-01-27 12:11:00,
2013-01-27 07:14:00,17.2,14.0,30.57,NNW,346,0.0,0.0,87,0.00,,,0.00,Wunderground v.1.15,2013-01-27 12:14:00,
2013-01-27 07:15:00,17.1,13.9,30.57,NNW,346,0.0,0.0,87,0.00,,,0.00,Wunderground v.1.15,2013-01-27 12:15:00,
2013-01-27 07:16:00,17.0,13.8,30.57,NNW,346,0.0,0.0,87,0.00,,,0.00,Wunderground v.1.15,2013-01-27 12:16:00,
2013-01-27 07:20:00,16.5,13.3,30.56,NNW,346,0.0,0.0,87,0.00,,,0.00,Wunderground v.1.15,2013-01-27 12:20:00,
2013-01-27 07:24:00,16.1,12.9,30.56,NNW,346,0.0,0.0,87,0.00,,,0.00,Wunderground v.1.15,2013-01-27 12:24:00,
2013-01-27 07:26:00,15.9,12.7,30.56,NNW,346,0.0,0.0,87,0.00,,,0.00,Wunderground v.1.15,2013-01-27 12:26:00,
2013-01-27 07:27:00,15.8,12.6,30.56,NNW,346,0.0,0.0,87,0.00,,,0.00,Wunderground v.1.15,2013-01-27 12:27:00,
2013-01-27 07:29:00,15.8,12.6,30.57,NNW,346,0.0,0.0,87,0.00,,,0.00,Wunderground v.1.15,2013-01-27 12:29:00,
2013-01-27 07:31:00,15.7,12.5,30.57,NNW,346,0.0,3.0,87,0.00,,,0.00,Wunderground v.1.15,2013-01-27 12:31:00,
2013-01-27 07:33:00,15.6,12.4,30.57,NNW,347,0.0,3.0,87,0.00,,,0.00,Wunderground v.1.15,2013-01-27 12:33:00,
2013-01-27 07:34:00,15.6,12.4,30.57,NNW,336,0.0,3.0,87,0.00,,,0.00,Wunderground v.1.15,2013-01-27 12:34:00,
2013-01-27 07:37:00,15.6,12.7,30.57,NNW,336,0.0,3.0,88,0.00,,,0.00,Wunderground v.1.15,2013-01-27 12:37:00,
2013-01-27 07:42:00,16.0,13.1,30.58,NNW,335,0.0,0.0,88,0.00,,,0.00,Wunderground v.1.15,2013-01-27 12:42:00,
2013-01-27 07:43:00,16.1,13.2,30.58,NNW,334,0.0,0.0,88,0.00,,,0.00,Wunderground v.1.15,2013-01-27 12:43:00,
2013-01-27 07:46:00,16.4,13.7,30.58,NNW,335,0.0,1.0,89,0.00,,,0.00,Wunderground v.1.15,2013-01-27 12:46:00,
2013-01-27 07:47:00,16.5,13.8,30.58,NNW,335,0.0,1.0,89,0.00,,,0.00,Wunderground v.1.15,2013-01-27 12:47:00,
2013-01-27 07:49:00,16.6,13.9,30.58,NNW,334,0.0,1.0,89,0.00,,,0.00,Wunderground v.1.15,2013-01-27 12:49:00,
2013-01-27 07:51:00,16.8,14.1,30.58,NW,318,0.0,0.0,89,0.00,,,0.00,Wunderground v.1.15,2013-01-27 12:51:00,
2013-01-27 07:53:00,16.9,14.0,30.58,NW,319,0.0,0.0,88,0.00,,,0.00,Wunderground v.1.15,2013-01-27 12:53:00,
2013-01-27 07:54:00,16.9,14.0,30.58,NW,319,0.0,0.0,88,0.00,,,0.00,Wunderground v.1.15,2013-01-27 12:54:00,
2013-01-27 07:57:00,17.0,14.1,30.58,NW,319,0.0,0.0,88,0.00,,,0.00,Wunderground v.1.15,2013-01-27 12:57:00,
2013-01-27 07:59:00,17.1,14.2,30.59,NW,319,0.0,0.0,88,0.00,,,0.00,Wunderground v.1.15,2013-01-27 12:59:00,
2013-01-27 08:01:00,17.1,14.2,30.59,NW,319,0.0,1.0,88,0.00,,,0.00,Wunderground v.1.15,2013-01-27 13:01:00,
2013-01-27 08:03:00,17.1,14.2,30.59,NNW,331,0.0,2.0,88,0.00,,,0.00,Wunderground v.1.15,2013-01-27 13:03:00,
2013-01-27 08:07:00,17.3,14.4,30.59,NNW,338,0.0,2.0,88,0.00,,,0.00,Wunderground v.1.15,2013-01-27 13:07:00,
2013-01-27 08:08:00,17.3,14.4,30.59,NNW,339,0.0,2.0,88,0.00,,,0.00,Wunderground v.1.15,2013-01-27 13:08:00,
2013-01-27 08:11:00,17.4,14.5,30.59,NNW,340,1.0,3.0,88,0.00,,,0.00,Wunderground v.1.15,2013-01-27 13:11:00,
2013-01-27 08:12:00,17.4,14.5,30.59,NNW,329,1.0,3.0,88,0.00,,,0.00,Wunderground v.1.15,2013-01-27 13:12:00,
2013-01-27 08:14:00,17.5,14.3,30.59,NNW,329,1.0,3.0,87,0.00,,,0.00,Wunderground v.1.15,2013-01-27 13:14:00,
2013-01-27 08:16:00,17.5,14.3,30.59,NNW,329,1.0,3.0,87,0.00,,,0.00,Wunderground v.1.15,2013-01-27 13:16:00,
2013-01-27 08:20:00,17.5,14.3,30.59,NNW,338,1.0,1.0,87,0.00,,,0.00,Wunderground v.1.15,2013-01-27 13:20:00,
2013-01-27 08:22:00,17.6,14.4,30.59,NW,323,1.0,1.0,87,0.00,,,0.00,Wunderground v.1.15,2013-01-27 13:22:00,
2013-01-27 08:24:00,17.6,14.4,30.60,NW,323,1.0,1.0,87,0.00,,,0.00,Wunderground v.1.15,2013-01-27 13:24:00,
2013-01-27 08:25:00,17.5,14.0,30.60,WNW,303,1.0,1.0,86,0.00,,,0.00,Wunderground v.1.15,2013-01-27 13:25:00,
2013-01-27 08:30:00,17.6,14.1,30.60,NNW,331,1.0,1.0,86,0.00,,,0.00,Wunderground v.1.15,2013-01-27 13:30:00,
2013-01-27 08:31:00,17.6,14.1,30.60,NNW,331,1.0,2.0,86,0.00,,,0.00,Wunderground v.1.15,2013-01-27 13:31:00,
2013-01-27 08:32:00,17.6,14.1,30.60,NNW,331,1.0,2.0,86,0.00,,,0.00,Wunderground v.1.15,2013-01-27 13:32:00,
2013-01-27 08:34:00,17.7,14.2,30.60,NNW,331,1.0,2.0,86,0.00,,,0.00,Wunderground v.1.15,2013-01-27 13:34:00,
2013-01-27 08:36:00,17.7,14.2,30.60,NNW,333,0.0,4.0,86,0.00,,,0.00,Wunderground v.1.15,2013-01-27 13:36:00,
2013-01-27 08:37:00,17.8,14.3,30.60,NNW,333,1.0,4.0,86,0.00,,,0.00,Wunderground v.1.15,2013-01-27 13:37:00,
2013-01-27 08:39:00,17.8,14.3,30.60,NW,313,1.0,6.0,86,0.00,,,0.00,Wunderground v.1.15,2013-01-27 13:39:00,
2013-01-27 08:41:00,17.9,14.2,30.60,NNW,346,1.0,2.0,85,0.00,,,0.00,Wunderground v.1.15,2013-01-27 13:41:00,
2013-01-27 08:44:00,18.1,14.4,30.60,NNW,333,2.0,4.0,85,0.00,,,0.00,Wunderground v.1.15,2013-01-27 13:44:00,
2013-01-27 08:46:00,18.2,14.4,30.61,NNW,337,2.0,4.0,85,0.00,,,0.00,Wunderground v.1.15,2013-01-27 13:46:00,
2013-01-27 08:49:00,18.3,14.3,30.61,NW,321,2.0,4.0,84,0.00,,,0.00,Wunderground v.1.15,2013-01-27 13:49:00,
2013-01-27 08:50:00,18.3,14.3,30.61,NW,321,1.0,1.0,84,0.00,,,0.00,Wunderground v.1.15,2013-01-27 13:50:00,
2013-01-27 08:51:00,18.3,14.3,30.61,NW,321,1.0,1.0,84,0.00,,,0.00,Wunderground v.1.15,2013-01-27 13:51:00,
2013-01-27 08:53:00,18.3,14.3,30.61,NW,321,1.0,4.0,84,0.00,,,0.00,Wunderground v.1.15,2013-01-27 13:53:00,
2013-01-27 08:56:00,18.4,14.4,30.60,NNW,327,1.0,4.0,84,0.00,,,0.00,Wunderground v.1.15,2013-01-27 13:56:00,
2013-01-27 08:57:00,18.4,14.4,30.60,NNW,327,1.0,4.0,84,0.00,,,0.00,Wunderground v.1.15,2013-01-27 13:57:00,
2013-01-27 08:58:00,18.4,14.4,30.60,NNW,328,1.0,4.0,84,0.00,,,0.00,Wunderground v.1.15,2013-01-27 13:58:00,
2013-01-27 08:59:00,18.5,14.5,30.60,NNW,328,1.0,4.0,84,0.00,,,0.00,Wunderground v.1.15,2013-01-27 13:59:00,
2013-01-27 09:01:00,18.5,14.2,30.60,NW,314,1.0,6.0,83,0.00,,,0.00,Wunderground v.1.15,2013-01-27 14:01:00,
2013-01-27 09:04:00,18.7,14.4,30.60,NW,322,1.0,6.0,83,0.00,,,0.00,Wunderground v.1.15,2013-01-27 14:04:00,
2013-01-27 09:07:00,18.8,14.5,30.60,NNW,331,1.0,6.0,83,0.00,,,0.00,Wunderground v.1.15,2013-01-27 14:07:00,
2013-01-27 09:09:00,18.9,14.6,30.60,NNW,334,1.0,6.0,83,0.00,,,0.00,Wunderground v.1.15,2013-01-27 14:09:00,
2013-01-27 09:10:00,19.0,14.7,30.60,North,351,1.0,3.0,83,0.00,,,0.00,Wunderground v.1.15,2013-01-27 14:10:00,
2013-01-27 09:14:00,19.2,14.6,30.60,NW,306,1.0,3.0,82,0.00,,,0.00,Wunderground v.1.15,2013-01-27 14:14:00,
2013-01-27 09:15:00,19.3,14.7,30.60,NW,306,1.0,3.0,82,0.00,,,0.00,Wunderground v.1.15,2013-01-27 14:15:00,
2013-01-27 09:16:00,19.3,14.7,30.60,NW,306,1.0,3.0,82,0.00,,,0.00,Wunderground v.1.15,2013-01-27 14:16:00,
2013-01-27 09:22:00,19.6,14.7,30.60,NNE,22,0.0,1.0,81,0.00,,,0.00,Wunderground v.1.15,2013-01-27 14:22:00,
2013-01-27 09:23:00,19.6,14.7,30.60,West,265,0.0,1.0,81,0.00,,,0.00,Wunderground v.1.15,2013-01-27 14:23:00,
2013-01-27 09:25:00,19.7,14.8,30.60,West,280,1.0,1.0,81,0.00,,,0.00,Wunderground v.1.15,2013-01-27 14:25:00,
2013-01-27 09:28:00,19.6,14.7,30.60,WNW,299,1.0,1.0,81,0.00,,,0.00,Wunderground v.1.15,2013-01-27 14:28:00,
2013-01-27 09:29:00,19.6,14.7,30.60,NW,317,0.0,2.0,81,0.00,,,0.00,Wunderground v.1.15,2013-01-27 14:29:00,
2013-01-27 09:31:00,19.7,14.8,30.60,NW,321,0.0,6.0,81,0.00,,,0.00,Wunderground v.1.15,2013-01-27 14:31:00,
2013-01-27 09:32:00,19.7,14.8,30.60,NW,321,0.0,6.0,81,0.00,,,0.00,Wunderground v.1.15,2013-01-27 14:32:00,
2013-01-27 09:34:00,19.7,14.8,30.61,NW,321,0.0,6.0,81,0.00,,,0.00,Wunderground v.1.15,2013-01-27 14:34:00,
2013-01-27 09:37:00,19.7,14.8,30.60,NW,321,0.0,6.0,81,0.00,,,0.00,Wunderground v.1.15,2013-01-27 14:37:00,
2013-01-27 09:38:00,19.7,14.8,30.60,NW,312,0.0,6.0,81,0.00,,,0.00,Wunderground v.1.15,2013-01-27 14:38:00,
2013-01-27 09:41:00,19.7,14.8,30.60,NW,310,0.0,0.0,81,0.00,,,0.00,Wunderground v.1.15,2013-01-27 14:41:00,
2013-01-27 09:43:00,19.7,14.8,30.61,NNW,338,0.0,0.0,81,0.00,,,0.00,Wunderground v.1.15,2013-01-27 14:43:00,
2013-01-27 09:45:00,19.7,14.8,30.61,NW,322,0.0,2.0,81,0.00,,,0.00,Wunderground v.1.15,2013-01-27 14:45:00,
2013-01-27 09:49:00,19.8,14.6,30.61,NW,313,1.0,3.0,80,0.00,,,0.00,Wunderground v.1.15,2013-01-27 14:49:00,
2013-01-27 09:50:00,19.8,14.6,30.61,NW,313,1.0,1.0,80,0.00,,,0.00,Wunderground v.1.15,2013-01-27 14:50:00,
2013-01-27 09:51:00,19.9,14.7,30.61,NW,313,1.0,1.0,80,0.00,,,0.00,Wunderground v.1.15,2013-01-27 14:51:00,
2013-01-27 09:55:00,20.0,14.8,30.61,NW,315,1.0,2.0,80,0.00,,,0.00,Wunderground v.1.15,2013-01-27 14:55:00,
2013-01-27 09:56:00,20.1,14.9,30.61,NW,315,1.0,2.0,80,0.00,,,0.00,Wunderground v.1.15,2013-01-27 14:56:00,
2013-01-27 09:59:00,20.4,15.2,30.62,NW,307,0.0,2.0,80,0.00,,,0.00,Wunderground v.1.15,2013-01-27 14:59:00,
2013-01-27 10:00:00,20.5,15.3,30.61,NW,322,0.0,0.0,80,0.00,,,0.00,Wunderground v.1.15,2013-01-27 15:00:00,
2013-01-27 10:01:00,20.6,15.4,30.61,NNW,348,0.0,6.0,80,0.00,,,0.00,Wunderground v.1.15,2013-01-27 15:01:00,
2013-01-27 10:04:00,20.7,15.2,30.62,NNW,329,1.0,6.0,79,0.00,,,0.00,Wunderground v.1.15,2013-01-27 15:04:00,
2013-01-27 10:06:00,20.8,15.3,30.62,North,351,1.0,6.0,79,0.00,,,0.00,Wunderground v.1.15,2013-01-27 15:06:00,
2013-01-27 10:09:00,20.9,15.4,30.62,NW,318,1.0,6.0,79,0.00,,,0.00,Wunderground v.1.15,2013-01-27 15:09:00,
2013-01-27 10:11:00,21.0,15.5,30.62,NNW,335,1.0,1.0,79,0.00,,,0.00,Wunderground v.1.15,2013-01-27 15:11:00,
2013-01-27 10:15:00,21.2,15.4,30.62,WNW,287,0.0,4.0,78,0.00,,,0.00,Wunderground v.1.15,2013-01-27 15:15:00,
2013-01-27 10:16:00,21.2,15.4,30.62,WNW,287,0.0,4.0,78,0.00,,,0.00,Wunderground v.1.15,2013-01-27 15:16:00,
2013-01-27 10:19:00,21.4,15.6,30.62,WNW,289,0.0,4.0,78,0.00,,,0.00,Wunderground v.1.15,2013-01-27 15:19:00,
2013-01-27 10:21:00,21.5,15.7,30.62,NW,309,1.0,5.0,78,0.00,,,0.00,Wunderground v.1.15,2013-01-27 15:21:00,
2013-01-27 10:23:00,21.5,15.4,30.62,NW,308,1.0,5.0,77,0.00,,,0.00,Wunderground v.1.15,2013-01-27 15:23:00,
2013-01-27 10:24:00,21.5,15.4,30.62,NW,310,1.0,5.0,77,0.00,,,0.00,Wunderground v.1.15,2013-01-27 15:24:00,
2013-01-27 10:27:00,21.6,15.5,30.62,NW,304,1.0,5.0,77,0.00,,,0.00,Wunderground v.1.15,2013-01-27 15:27:00,
2013-01-27 10:29:00,21.6,15.5,30.62,WNW,302,0.0,5.0,77,0.00,,,0.00,Wunderground v.1.15,2013-01-27 15:29:00,
2013-01-27 10:33:00,21.9,15.8,30.62,WNW,295,0.0,4.0,77,0.00,,,0.00,Wunderground v.1.15,2013-01-27 15:33:00,
2013-01-27 10:36:00,22.1,16.0,30.62,WNW,295,0.0,4.0,77,0.00,,,0.00,Wunderground v.1.15,2013-01-27 15:36:00,
2013-01-27 10:39:00,22.2,16.1,30.62,WNW,296,0.0,4.0,77,0.00,,,0.00,Wunderground v.1.15,2013-01-27 15:39:00,
2013-01-27 10:42:00,22.6,16.5,30.62,WNW,294,0.0,0.0,77,0.00,,,0.00,Wunderground v.1.15,2013-01-27 15:42:00,
2013-01-27 10:44:00,22.7,16.3,30.62,WNW,294,0.0,0.0,76,0.00,,,0.00,Wunderground v.1.15,2013-01-27 15:44:00,
2013-01-27 10:45:00,22.8,16.4,30.62,WNW,294,0.0,0.0,76,0.00,,,0.00,Wunderground v.1.15,2013-01-27 15:45:00,
2013-01-27 10:48:00,22.9,16.2,30.62,West,276,0.0,3.0,75,0.00,,,0.00,Wunderground v.1.15,2013-01-27 15:48:00,
2013-01-27 10:50:00,22.9,16.2,30.62,West,277,0.0,0.0,75,0.00,,,0.00,Wunderground v.1.15,2013-01-27 15:50:00,
2013-01-27 10:51:00,22.9,16.5,30.62,West,276,0.0,0.0,76,0.00,,,0.00,Wunderground v.1.15,2013-01-27 15:51:00,
2013-01-27 10:53:00,23.1,16.7,30.62,West,277,0.0,0.0,76,0.00,,,0.00,Wunderground v.1.15,2013-01-27 15:53:00,
2013-01-27 10:54:00,23.1,16.7,30.62,West,277,0.0,0.0,76,0.00,,,0.00,Wunderground v.1.15,2013-01-27 15:54:00,
2013-01-27 10:56:00,23.4,16.9,30.62,West,272,1.0,3.0,76,0.00,,,0.00,Wunderground v.1.15,2013-01-27 15:56:00,
2013-01-27 11:00:00,23.4,16.6,30.62,WSW,241,1.0,1.0,75,0.00,,,0.00,Wunderground v.1.15,2013-01-27 16:00:00,
2013-01-27 11:01:00,23.5,16.7,30.62,WSW,241,1.0,5.0,75,0.00,,,0.00,Wunderground v.1.15,2013-01-27 16:01:00,
2013-01-27 11:06:00,23.6,16.5,30.62,WNW,284,0.0,5.0,74,0.00,,,0.00,Wunderground v.1.15,2013-01-27 16:06:00,
2013-01-27 11:07:00,23.7,16.9,30.62,NW,306,0.0,5.0,75,0.00,,,0.00,Wunderground v.1.15,2013-01-27 16:07:00,
2013-01-27 11:08:00,23.7,16.6,30.62,NNW,343,0.0,5.0,74,0.00,,,0.00,Wunderground v.1.15,2013-01-27 16:08:00,
2013-01-27 11:09:00,23.7,16.3,30.62,North,10,0.0,5.0,73,0.00,,,0.00,Wunderground v.1.15,2013-01-27 16:09:00,
2013-01-27 11:12:00,23.6,16.2,30.62,NNW,329,1.0,3.0,73,0.00,,,0.00,Wunderground v.1.15,2013-01-27 16:12:00,
2013-01-27 11:15:00,23.5,16.1,30.62,NNW,345,1.0,3.0,73,0.00,,,0.00,Wunderground v.1.15,2013-01-27 16:15:00,
2013-01-27 11:17:00,23.5,16.1,30.62,NW,325,1.0,3.0,73,0.00,,,0.00,Wunderground v.1.15,2013-01-27 16:17:00,
2013-01-27 11:19:00,23.5,16.1,30.61,NW,325,1.0,3.0,73,0.00,,,0.00,Wunderground v.1.15,2013-01-27 16:19:00,
2013-01-27 11:21:00,23.6,16.5,30.61,NW,304,1.0,1.0,74,0.00,,,0.00,Wunderground v.1.15,2013-01-27 16:21:00,
2013-01-27 11:22:00,23.7,16.6,30.61,WNW,303,1.0,1.0,74,0.00,,,0.00,Wunderground v.1.15,2013-01-27 16:22:00,
2013-01-27 11:26:00,24.0,16.6,30.61,WNW,284,0.0,2.0,73,0.00,,,0.00,Wunderground v.1.15,2013-01-27 16:26:00,
2013-01-27 11:27:00,24.1,16.7,30.61,NW,311,0.0,4.0,73,0.00,,,0.00,Wunderground v.1.15,2013-01-27 16:27:00,
2013-01-27 11:32:00,24.3,16.9,30.61,NE,52,0.0,4.0,73,0.00,,,0.00,Wunderground v.1.15,2013-01-27 16:32:00,
2013-01-27 11:33:00,24.4,17.0,30.61,West,270,0.0,4.0,73,0.00,,,0.00,Wunderground v.1.15,2013-01-27 16:33:00,
2013-01-27 11:34:00,24.4,17.0,30.61,West,269,0.0,4.0,73,0.00,,,0.00,Wunderground v.1.15,2013-01-27 16:34:00,
2013-01-27 11:37:00,24.5,16.8,30.60,West,279,0.0,4.0,72,0.00,,,0.00,Wunderground v.1.15,2013-01-27 16:37:00,
2013-01-27 11:39:00,24.6,16.9,30.60,West,260,0.0,4.0,72,0.00,,,0.00,Wunderground v.1.15,2013-01-27 16:39:00,
2013-01-27 11:40:00,24.7,17.0,30.60,West,260,0.0,0.0,72,0.00,,,0.00,Wunderground v.1.15,2013-01-27 16:40:00,
2013-01-27 11:44:00,24.8,16.7,30.60,NW,326,0.0,2.0,71,0.00,,,0.00,Wunderground v.1.15,2013-01-27 16:44:00,
2013-01-27 11:45:00,24.8,16.7,30.60,NW,317,0.0,2.0,71,0.00,,,0.00,Wunderground v.1.15,2013-01-27 16:45:00,
2013-01-27 11:49:00,24.6,16.2,30.60,NNW,337,1.0,5.0,70,0.00,,,0.00,Wunderground v.1.15,2013-01-27 16:49:00,
2013-01-27 11:50:00,24.5,16.1,30.60,NNW,346,1.0,1.0,70,0.00,,,0.00,Wunderground v.1.15,2013-01-27 16:50:00,
2013-01-27 11:53:00,24.6,16.5,30.60,West,274,1.0,1.0,71,0.00,,,0.00,Wunderground v.1.15,2013-01-27 16:53:00,
2013-01-27 11:54:00,24.7,16.6,30.60,West,273,1.0,1.0,71,0.00,,,0.00,Wunderground v.1.15,2013-01-27 16:54:00,
2013-01-27 11:56:00,24.9,17.1,30.60,WNW,285,1.0,1.0,72,0.00,,,0.00,Wunderground v.1.15,2013-01-27 16:56:00,
2013-01-27 11:58:00,25.0,16.9,30.60,WNW,286,0.0,1.0,71,0.00,,,0.00,Wunderground v.1.15,2013-01-27 16:58:00,
2013-01-27 12:04:00,25.1,17.0,30.60,West,260,0.0,5.0,71,0.00,,,0.00,Wunderground v.1.15,2013-01-27 17:04:00,
2013-01-27 12:05:00,25.1,17.0,30.59,WNW,291,0.0,5.0,71,0.00,,,0.00,Wunderground v.1.15,2013-01-27 17:05:00,
2013-01-27 12:09:00,24.9,16.8,30.59,West,260,1.0,5.0,71,0.00,,,0.00,Wunderground v.1.15,2013-01-27 17:09:00,
2013-01-27 12:10:00,24.9,16.8,30.59,West,260,1.0,1.0,71,0.00,,,0.00,Wunderground v.1.15,2013-01-27 17:10:00,
2013-01-27 12:15:00,25.0,16.9,30.59,West,263,1.0,1.0,71,0.00,,,0.00,Wunderground v.1.15,2013-01-27 17:15:00,
2013-01-27 12:16:00,25.0,16.9,30.58,West,263,1.0,1.0,71,0.00,,,0.00,Wunderground v.1.15,2013-01-27 17:16:00,
2013-01-27 12:19:00,25.1,17.0,30.58,WNW,283,0.0,1.0,71,0.00,,,0.00,Wunderground v.1.15,2013-01-27 17:19:00,
2013-01-27 12:21:00,25.1,17.0,30.58,WNW,284,0.0,0.0,71,0.00,,,0.00,Wunderground v.1.15,2013-01-27 17:21:00,
2013-01-27 12:23:00,25.2,17.1,30.58,West,271,0.0,2.0,71,0.00,,,0.00,Wunderground v.1.15,2013-01-27 17:23:00,
2013-01-27 12:24:00,25.2,16.8,30.58,NW,320,0.0,5.0,70,0.00,,,0.00,Wunderground v.1.15,2013-01-27 17:24:00,
2013-01-27 12:27:00,25.2,16.8,30.58,WNW,303,0.0,5.0,70,0.00,,,0.00,Wunderground v.1.15,2013-01-27 17:27:00,
2013-01-27 12:29:00,25.2,16.8,30.57,NNW,336,1.0,5.0,70,0.00,,,0.00,Wunderground v.1.15,2013-01-27 17:29:00,
2013-01-27 12:30:00,25.2,16.8,30.57,NNW,331,1.0,3.0,70,0.00,,,0.00,Wunderground v.1.15,2013-01-27 17:30:00,
2013-01-27 12:36:00,24.8,16.4,30.57,WNW,292,1.0,5.0,70,0.00,,,0.00,Wunderground v.1.15,2013-01-27 17:36:00,
2013-01-27 12:38:00,24.9,16.5,30.57,WNW,290,1.0,5.0,70,0.00,,,0.00,Wunderground v.1.15,2013-01-27 17:38:00,
2013-01-27 12:41:00,25.2,17.1,30.57,WNW,290,1.0,2.0,71,0.00,,,0.00,Wunderground v.1.15,2013-01-27 17:41:00,
2013-01-27 12:44:00,25.4,17.0,30.57,NW,304,1.0,2.0,70,0.00,,,0.00,Wunderground v.1.15,2013-01-27 17:44:00,
2013-01-27 12:47:00,25.6,16.8,30.57,West,261,1.0,3.0,69,0.00,,,0.00,Wunderground v.1.15,2013-01-27 17:47:00,
2013-01-27 12:49:00,25.7,16.9,30.56,NW,319,1.0,3.0,69,0.00,,,0.00,Wunderground v.1.15,2013-01-27 17:49:00,
2013-01-27 12:54:00,25.8,17.0,30.57,WNW,290,1.0,4.0,69,0.00,,,0.00,Wunderground v.1.15,2013-01-27 17:54:00,
2013-01-27 12:56:00,25.7,16.6,30.56,West,269,1.0,4.0,68,0.00,,,0.00,Wunderground v.1.15,2013-01-27 17:56:00,
2013-01-27 13:00:00,25.8,17.0,30.56,WNW,295,1.0,3.0,69,0.00,,,0.00,Wunderground v.1.15,2013-01-27 18:00:00,
2013-01-27 13:01:00,25.8,17.4,30.56,WNW,286,1.0,5.0,70,0.00,,,0.00,Wunderground v.1.15,2013-01-27 18:01:00,
2013-01-27 13:04:00,25.9,17.5,30.56,NW,306,1.0,5.0,70,0.00,,,0.00,Wunderground v.1.15,2013-01-27 18:04:00,
2013-01-27 13:05:00,25.9,17.1,30.56,NNW,344,1.0,5.0,69,0.00,,,0.00,Wunderground v.1.15,2013-01-27 18:05:00,
2013-01-27 13:06:00,25.9,17.1,30.56,NNW,330,1.0,5.0,69,0.00,,,0.00,Wunderground v.1.15,2013-01-27 18:06:00,
2013-01-27 13:07:00,25.9,17.1,30.56,WNW,300,1.0,5.0,69,0.00,,,0.00,Wunderground v.1.15,2013-01-27 18:07:00,
2013-01-27 13:10:00,25.9,17.5,30.56,West,262,1.0,1.0,70,0.00,,,0.00,Wunderground v.1.15,2013-01-27 18:10:00,
2013-01-27 13:12:00,26.0,17.6,30.56,WNW,282,1.0,4.0,70,0.00,,,0.01,Wunderground v.1.15,2013-01-27 18:12:00,
2013-01-27 13:14:00,26.2,17.7,30.57,West,260,1.0,4.0,70,0.00,,,0.01,Wunderground v.1.15,2013-01-27 18:14:00,
2013-01-27 13:16:00,26.3,18.2,30.56,WNW,298,1.0,4.0,71,0.00,,,0.01,Wunderground v.1.15,2013-01-27 18:16:00,
2013-01-27 13:17:00,26.4,17.9,30.56,WNW,295,1.0,4.0,70,0.00,,,0.01,Wunderground v.1.15,2013-01-27 18:17:00,
2013-01-27 13:21:00,26.7,18.2,30.56,West,259,1.0,1.0,70,0.00,,,0.01,Wunderground v.1.15,2013-01-27 18:21:00,
2013-01-27 13:22:00,26.8,18.3,30.56,West,275,1.0,3.0,70,0.00,,,0.01,Wunderground v.1.15,2013-01-27 18:22:00,
2013-01-27 13:24:00,26.8,18.0,30.56,West,277,1.0,3.0,69,0.00,,,0.01,Wunderground v.1.15,2013-01-27 18:24:00,
2013-01-27 13:26:00,26.6,17.5,30.56,WNW,303,1.0,3.0,68,0.00,,,0.01,Wunderground v.1.15,2013-01-27 18:26:00,
2013-01-27 13:29:00,26.3,17.5,30.56,NW,313,1.0,5.0,69,0.00,,,0.01,Wunderground v.1.15,2013-01-27 18:29:00,
2013-01-27 13:30:00,26.2,17.4,30.56,NW,313,1.0,4.0,69,0.00,,,0.01,Wunderground v.1.15,2013-01-27 18:30:00,
2013-01-27 13:33:00,26.3,17.8,30.56,WNW,284,2.0,5.0,70,0.00,,,0.01,Wunderground v.1.15,2013-01-27 18:33:00,
2013-01-27 13:36:00,26.5,17.7,30.56,NW,313,2.0,9.0,69,0.00,,,0.01,Wunderground v.1.15,2013-01-27 18:36:00,
2013-01-27 13:39:00,26.4,17.3,30.57,NW,325,2.0,9.0,68,0.00,,,0.02,Wunderground v.1.15,2013-01-27 18:39:00,
2013-01-27 13:40:00,26.4,17.6,30.56,WNW,292,2.0,2.0,69,0.00,,,0.02,Wunderground v.1.15,2013-01-27 18:40:00,
2013-01-27 13:41:00,26.5,17.7,30.57,West,271,2.0,2.0,69,0.00,,,0.02,Wunderground v.1.15,2013-01-27 18:41:00,
2013-01-27 13:45:00,26.7,17.9,30.56,NNW,330,3.0,4.0,69,0.00,,,0.02,Wunderground v.1.15,2013-01-27 18:45:00,
2013-01-27 13:46:00,26.6,17.8,30.56,NW,307,3.0,4.0,69,0.00,,,0.02,Wunderground v.1.15,2013-01-27 18:46:00,
2013-01-27 13:48:00,26.7,17.9,30.57,NW,311,2.0,4.0,69,0.00,,,0.02,Wunderground v.1.15,2013-01-27 18:48:00,
2013-01-27 13:50:00,26.6,17.8,30.57,NNW,340,2.0,2.0,69,0.00,,,0.02,Wunderground v.1.15,2013-01-27 18:50:00,
2013-01-27 13:52:00,26.6,17.8,30.56,NNW,332,3.0,5.0,69,0.00,,,0.02,Wunderground v.1.15,2013-01-27 18:52:00,
2013-01-27 13:54:00,26.7,18.2,30.56,WNW,283,3.0,5.0,70,0.00,,,0.02,Wunderground v.1.15,2013-01-27 18:54:00,
2013-01-27 13:55:00,26.7,18.2,30.56,NW,313,2.0,5.0,70,0.00,,,0.02,Wunderground v.1.15,2013-01-27 18:55:00,
2013-01-27 13:59:00,27.0,18.2,30.56,West,279,1.0,5.0,69,0.00,,,0.02,Wunderground v.1.15,2013-01-27 18:59:00,
2013-01-27 14:00:00,27.0,18.2,30.56,West,277,1.0,1.0,69,0.00,,,0.02,Wunderground v.1.15,2013-01-27 19:00:00,
2013-01-27 14:01:00,27.1,18.3,30.56,West,279,1.0,7.0,69,0.00,,,0.02,Wunderground v.1.15,2013-01-27 19:01:00,
2013-01-27 14:05:00,27.2,18.4,30.56,WNW,294,1.0,7.0,69,0.00,,,0.02,Wunderground v.1.15,2013-01-27 19:05:00,
2013-01-27 14:06:00,27.3,18.5,30.56,WNW,296,1.0,7.0,69,0.00,,,0.02,Wunderground v.1.15,2013-01-27 19:06:00,
2013-01-27 14:09:00,27.5,19.0,30.56,WNW,289,1.0,7.0,70,0.00,,,0.02,Wunderground v.1.15,2013-01-27 19:09:00,
2013-01-27 14:11:00,27.6,19.1,30.56,West,277,1.0,1.0,70,0.00,,,0.02,Wunderground v.1.15,2013-01-27 19:11:00,
2013-01-27 14:14:00,27.8,18.9,30.56,West,269,0.0,1.0,69,0.00,,,0.02,Wunderground v.1.15,2013-01-27 19:14:00,
2013-01-27 14:15:00,27.8,18.9,30.56,WNW,295,0.0,1.0,69,0.00,,,0.02,Wunderground v.1.15,2013-01-27 19:15:00,
2013-01-27 14:16:00,27.7,18.5,30.56,West,280,0.0,1.0,68,0.00,,,0.02,Wunderground v.1.15,2013-01-27 19:16:00,
2013-01-27 14:19:00,27.7,18.5,30.55,NW,310,1.0,4.0,68,0.00,,,0.02,Wunderground v.1.15,2013-01-27 19:19:00,
2013-01-27 14:21:00,27.6,18.4,30.55,NNW,338,1.0,3.0,68,0.00,,,0.02,Wunderground v.1.15,2013-01-27 19:21:00,
2013-01-27 14:24:00,27.5,18.3,30.55,WNW,300,1.0,3.0,68,0.00,,,0.02,Wunderground v.1.15,2013-01-27 19:24:00,
2013-01-27 14:25:00,27.5,18.3,30.55,West,272,1.0,3.0,68,0.00,,,0.03,Wunderground v.1.15,2013-01-27 19:25:00,
2013-01-27 14:26:00,27.6,18.8,30.55,West,264,1.0,3.0,69,0.00,,,0.03,Wunderground v.1.15,2013-01-27 19:26:00,
2013-01-27 14:31:00,27.8,18.6,30.55,NW,321,1.0,4.0,68,0.00,,,0.03,Wunderground v.1.15,2013-01-27 19:31:00,
2013-01-27 14:32:00,27.8,18.6,30.55,NNW,337,1.0,9.0,68,0.00,,,0.03,Wunderground v.1.15,2013-01-27 19:32:00,
2013-01-27 14:34:00,27.7,18.5,30.55,NNW,333,1.0,9.0,68,0.00,,,0.03,Wunderground v.1.15,2013-01-27 19:34:00,
2013-01-27 14:37:00,27.3,18.1,30.55,NW,308,2.0,9.0,68,0.00,,,0.03,Wunderground v.1.15,2013-01-27 19:37:00,
2013-01-27 14:39:00,27.3,18.1,30.55,NW,317,2.0,9.0,68,0.00,,,0.03,Wunderground v.1.15,2013-01-27 19:39:00,
2013-01-27 14:42:00,27.4,18.6,30.55,West,273,1.0,2.0,69,0.00,,,0.03,Wunderground v.1.15,2013-01-27 19:42:00,
2013-01-27 14:43:00,27.5,18.7,30.55,West,262,1.0,2.0,69,0.00,,,0.03,Wunderground v.1.15,2013-01-27 19:43:00,
2013-01-27 14:45:00,27.6,18.4,30.55,WNW,290,1.0,2.0,68,0.00,,,0.03,Wunderground v.1.15,2013-01-27 19:45:00,
2013-01-27 14:50:00,27.7,18.5,30.55,West,270,1.0,1.0,68,0.00,,,0.04,Wunderground v.1.15,2013-01-27 19:50:00,
2013-01-27 14:51:00,27.7,18.2,30.55,West,261,1.0,1.0,67,0.00,,,0.04,Wunderground v.1.15,2013-01-27 19:51:00,
2013-01-27 14:52:00,27.8,18.6,30.55,WSW,255,1.0,1.0,68,0.00,,,0.04,Wunderground v.1.15,2013-01-27 19:52:00,
2013-01-27 14:56:00,28.0,18.8,30.55,West,265,0.0,1.0,68,0.00,,,0.04,Wunderground v.1.15,2013-01-27 19:56:00,
2013-01-27 14:59:00,28.2,18.6,30.54,WNW,294,0.0,1.0,67,0.00,,,0.04,Wunderground v.1.15,2013-01-27 19:59:00,
2013-01-27 15:02:00,28.4,18.8,30.54,NW,317,0.0,7.0,67,0.00,,,0.04,Wunderground v.1.15,2013-01-27 20:02:00,
2013-01-27 15:05:00,28.5,18.9,30.55,WNW,294,1.0,7.0,67,0.00,,,0.04,Wunderground v.1.15,2013-01-27 20:05:00,
2013-01-27 15:06:00,28.5,18.9,30.55,WNW,287,1.0,7.0,67,0.00,,,0.04,Wunderground v.1.15,2013-01-27 20:06:00,
2013-01-27 15:08:00,28.7,19.5,30.55,NW,315,1.0,7.0,68,0.00,,,0.04,Wunderground v.1.15,2013-01-27 20:08:00,
2013-01-27 15:10:00,28.6,19.0,30.55,WNW,285,1.0,1.0,67,0.00,,,0.04,Wunderground v.1.15,2013-01-27 20:10:00,
2013-01-27 15:11:00,28.6,19.0,30.55,WNW,293,1.0,1.0,67,0.00,,,0.04,Wunderground v.1.15,2013-01-27 20:11:00,
2013-01-27 15:13:00,28.4,18.8,30.55,NW,308,1.0,1.0,67,0.00,,,0.04,Wunderground v.1.15,2013-01-27 20:13:00,
2013-01-27 15:19:00,28.6,19.4,30.55,WNW,302,1.0,5.0,68,0.00,,,0.04,Wunderground v.1.15,2013-01-27 20:19:00,
2013-01-27 15:20:00,28.6,19.0,30.54,NW,304,0.0,0.0,67,0.00,,,0.04,Wunderground v.1.15,2013-01-27 20:20:00,
2013-01-27 15:23:00,28.6,19.0,30.54,WNW,301,0.0,0.0,67,0.00,,,0.04,Wunderground v.1.15,2013-01-27 20:23:00,
2013-01-27 15:26:00,28.6,19.0,30.54,WSW,249,0.0,0.0,67,0.00,,,0.04,Wunderground v.1.15,2013-01-27 20:26:00,
2013-01-27 15:29:00,28.5,18.9,30.54,WSW,257,0.0,0.0,67,0.00,,,0.04,Wunderground v.1.15,2013-01-27 20:29:00,
2013-01-27 15:30:00,28.5,18.9,30.54,WSW,257,0.0,0.0,67,0.00,,,0.04,Wunderground v.1.15,2013-01-27 20:30:00,
2013-01-27 15:33:00,28.4,19.2,30.54,West,264,0.0,10.0,68,0.00,,,0.04,Wunderground v.1.15,2013-01-27 20:33:00,
2013-01-27 15:34:00,28.4,19.2,30.54,West,264,0.0,10.0,68,0.00,,,0.04,Wunderground v.1.15,2013-01-27 20:34:00,
2013-01-27 15:40:00,28.3,19.1,30.54,West,263,0.0,0.0,68,0.00,,,0.05,Wunderground v.1.15,2013-01-27 20:40:00,
2013-01-27 15:41:00,28.3,19.4,30.54,West,263,0.0,0.0,69,0.00,,,0.05,Wunderground v.1.15,2013-01-27 20:41:00,
2013-01-27 15:44:00,28.1,18.9,30.54,West,264,0.0,0.0,68,0.00,,,0.05,Wunderground v.1.15,2013-01-27 20:44:00,
2013-01-27 15:46:00,27.9,18.7,30.54,WNW,295,0.0,2.0,68,0.00,,,0.05,Wunderground v.1.15,2013-01-27 20:46:00,
2013-01-27 15:48:00,27.8,18.6,30.54,WNW,293,0.0,2.0,68,0.00,,,0.05,Wunderground v.1.15,2013-01-27 20:48:00,
2013-01-27 15:51:00,27.7,18.5,30.54,WNW,294,0.0,1.0,68,0.00,,,0.05,Wunderground v.1.15,2013-01-27 20:51:00,
2013-01-27 15:54:00,27.6,18.4,30.54,SW,234,0.0,1.0,68,0.00,,,0.05,Wunderground v.1.15,2013-01-27 20:54:00,
2013-01-27 15:57:00,27.6,18.8,30.54,WSW,256,0.0,1.0,69,0.00,,,0.05,Wunderground v.1.15,2013-01-27 20:57:00,
2013-01-27 16:00:00,27.6,18.8,30.54,West,260,0.0,0.0,69,0.00,,,0.05,Wunderground v.1.15,2013-01-27 21:00:00,
2013-01-27 16:02:00,27.6,18.8,30.54,West,269,0.0,5.0,69,0.00,,,0.05,Wunderground v.1.15,2013-01-27 21:02:00,
2013-01-27 16:03:00,27.7,18.8,30.55,West,269,0.0,5.0,69,0.00,,,0.05,Wunderground v.1.15,2013-01-27 21:03:00,
2013-01-27 16:06:00,27.8,18.9,30.54,West,265,0.0,5.0,69,0.00,,,0.05,Wunderground v.1.15,2013-01-27 21:06:00,
2013-01-27 16:07:00,27.8,18.6,30.54,WSW,254,0.0,5.0,68,0.00,,,0.05,Wunderground v.1.15,2013-01-27 21:07:00,
2013-01-27 16:10:00,27.9,18.7,30.54,WNW,295,1.0,4.0,68,0.00,,,0.05,Wunderground v.1.15,2013-01-27 21:10:00,
2013-01-27 16:11:00,27.9,18.7,30.54,WNW,291,1.0,4.0,68,0.00,,,0.05,Wunderground v.1.15,2013-01-27 21:11:00,
2013-01-27 16:14:00,27.9,18.7,30.54,WNW,294,1.0,4.0,68,0.00,,,0.05,Wunderground v.1.15,2013-01-27 21:14:00,
2013-01-27 16:17:00,27.8,18.6,30.54,WNW,288,0.0,4.0,68,0.00,,,0.05,Wunderground v.1.15,2013-01-27 21:17:00,
2013-01-27 16:19:00,27.8,18.9,30.54,WNW,287,0.0,4.0,69,0.00,,,0.05,Wunderground v.1.15,2013-01-27 21:19:00,
2013-01-27 16:21:00,27.8,18.9,30.54,WNW,302,0.0,2.0,69,0.00,,,0.05,Wunderground v.1.15,2013-01-27 21:21:00,
2013-01-27 16:22:00,27.8,18.9,30.54,WNW,301,0.0,2.0,69,0.00,,,0.05,Wunderground v.1.15,2013-01-27 21:22:00,
2013-01-27 16:26:00,27.8,18.9,30.54,West,265,0.0,2.0,69,0.00,,,0.05,Wunderground v.1.15,2013-01-27 21:26:00,
2013-01-27 16:27:00,27.7,18.5,30.54,West,263,0.0,2.0,68,0.00,,,0.05,Wunderground v.1.15,2013-01-27 21:27:00,
2013-01-27 16:28:00,27.7,18.5,30.54,West,263,1.0,2.0,68,0.00,,,0.05,Wunderground v.1.15,2013-01-27 21:28:00,
2013-01-27 16:31:00,27.7,18.5,30.54,West,264,0.0,3.0,68,0.00,,,0.05,Wunderground v.1.15,2013-01-27 21:31:00,
2013-01-27 16:34:00,27.7,18.8,30.54,West,264,0.0,3.0,69,0.00,,,0.05,Wunderground v.1.15,2013-01-27 21:34:00,
2013-01-27 16:39:00,27.7,18.8,30.54,WNW,288,1.0,3.0,69,0.00,,,0.05,Wunderground v.1.15,2013-01-27 21:39:00,
2013-01-27 16:42:00,27.6,18.8,30.54,WNW,290,1.0,1.0,69,0.00,,,0.05,Wunderground v.1.15,2013-01-27 21:42:00,
2013-01-27 16:44:00,27.5,18.7,30.54,NNW,330,1.0,1.0,69,0.00,,,0.05,Wunderground v.1.15,2013-01-27 21:44:00,
2013-01-27 16:46:00,27.4,18.6,30.54,West,262,1.0,1.0,69,0.00,,,0.05,Wunderground v.1.15,2013-01-27 21:46:00,
2013-01-27 16:49:00,27.4,18.9,30.54,West,262,0.0,1.0,70,0.00,,,0.05,Wunderground v.1.15,2013-01-27 21:49:00,
2013-01-27 16:54:00,27.3,18.8,30.54,West,273,1.0,1.0,70,0.00,,,0.05,Wunderground v.1.15,2013-01-27 21:54:00,
2013-01-27 16:55:00,27.4,18.9,30.54,West,274,0.0,1.0,70,0.00,,,0.05,Wunderground v.1.15,2013-01-27 21:55:00,
2013-01-27 16:59:00,27.1,18.3,30.54,WNW,288,1.0,4.0,69,0.00,,,0.05,Wunderground v.1.15,2013-01-27 21:59:00,
2013-01-27 17:01:00,27.0,18.5,30.54,WNW,288,1.0,4.0,70,0.00,,,0.05,Wunderground v.1.15,2013-01-27 22:01:00,
2013-01-27 17:03:00,26.8,18.3,30.54,WNW,296,1.0,4.0,70,0.00,,,0.05,Wunderground v.1.15,2013-01-27 22:03:00,
2013-01-27 17:05:00,26.6,18.1,30.54,West,267,1.0,4.0,70,0.00,,,0.05,Wunderground v.1.15,2013-01-27 22:05:00,
2013-01-27 17:07:00,26.5,18.0,30.54,West,268,1.0,4.0,70,0.00,,,0.05,Wunderground v.1.15,2013-01-27 22:07:00,
2013-01-27 17:09:00,26.5,18.0,30.54,West,271,1.0,4.0,70,0.00,,,0.05,Wunderground v.1.15,2013-01-27 22:09:00,
2013-01-27 17:12:00,26.3,17.8,30.54,West,269,0.0,2.0,70,0.00,,,0.05,Wunderground v.1.15,2013-01-27 22:12:00,
2013-01-27 17:13:00,26.3,17.8,30.54,West,269,0.0,2.0,70,0.00,,,0.05,Wunderground v.1.15,2013-01-27 22:13:00,
2013-01-27 17:16:00,26.2,18.1,30.54,West,269,0.0,2.0,71,0.00,,,0.05,Wunderground v.1.15,2013-01-27 22:16:00,
2013-01-27 17:19:00,26.2,18.1,30.54,West,268,0.0,2.0,71,0.00,,,0.05,Wunderground v.1.15,2013-01-27 22:19:00,
2013-01-27 17:20:00,26.2,18.1,30.54,West,269,0.0,0.0,71,0.00,,,0.05,Wunderground v.1.15,2013-01-27 22:20:00,
2013-01-27 17:24:00,26.1,18.0,30.54,West,269,0.0,0.0,71,0.00,,,0.05,Wunderground v.1.15,2013-01-27 22:24:00,
2013-01-27 17:25:00,26.0,17.9,30.54,West,269,0.0,0.0,71,0.00,,,0.05,Wunderground v.1.15,2013-01-27 22:25:00,
2013-01-27 17:29:00,25.9,18.1,30.55,West,269,0.0,0.0,72,0.00,,,0.05,Wunderground v.1.15,2013-01-27 22:29:00,
2013-01-27 17:31:00,25.8,18.0,30.55,West,268,0.0,5.0,72,0.00,,,0.05,Wunderground v.1.15,2013-01-27 22:31:00,
2013-01-27 17:32:00,25.8,18.0,30.55,West,268,0.0,5.0,72,0.00,,,0.05,Wunderground v.1.15,2013-01-27 22:32:00,
2013-01-27 17:36:00,25.6,17.8,30.55,West,268,0.0,5.0,72,0.00,,,0.05,Wunderground v.1.15,2013-01-27 22:36:00,
2013-01-27 17:37:00,25.5,17.7,30.55,West,269,0.0,5.0,72,0.00,,,0.05,Wunderground v.1.15,2013-01-27 22:37:00,
2013-01-27 17:40:00,25.5,17.7,30.55,West,269,0.0,0.0,72,0.00,,,0.05,Wunderground v.1.15,2013-01-27 22:40:00,
2013-01-27 17:41:00,25.4,17.6,30.55,West,268,0.0,0.0,72,0.00,,,0.05,Wunderground v.1.15,2013-01-27 22:41:00,
2013-01-27 17:46:00,25.3,17.5,30.55,West,268,0.0,0.0,72,0.00,,,0.05,Wunderground v.1.15,2013-01-27 22:46:00,
2013-01-27 17:49:00,25.3,17.5,30.55,West,269,0.0,0.0,72,0.00,,,0.05,Wunderground v.1.15,2013-01-27 22:49:00,
2013-01-27 17:51:00,25.2,17.4,30.55,West,269,0.0,0.0,72,0.00,,,0.05,Wunderground v.1.15,2013-01-27 22:51:00,
2013-01-27 17:55:00,25.1,17.3,30.55,West,268,0.0,0.0,72,0.00,,,0.05,Wunderground v.1.15,2013-01-27 22:55:00,
2013-01-27 17:56:00,25.1,17.3,30.55,West,268,0.0,0.0,72,0.00,,,0.05,Wunderground v.1.15,2013-01-27 22:56:00,
2013-01-27 18:00:00,24.9,17.5,30.55,West,268,0.0,0.0,73,0.00,,,0.05,Wunderground v.1.15,2013-01-27 23:00:00,
2013-01-27 18:01:00,24.8,17.4,30.55,West,268,0.0,4.0,73,0.00,,,0.05,Wunderground v.1.15,2013-01-27 23:01:00,
2013-01-27 18:04:00,24.5,17.1,30.55,West,269,0.0,4.0,73,0.00,,,0.05,Wunderground v.1.15,2013-01-27 23:04:00,
2013-01-27 18:05:00,24.5,17.1,30.54,West,269,0.0,4.0,73,0.00,,,0.05,Wunderground v.1.15,2013-01-27 23:05:00,
2013-01-27 18:06:00,24.4,17.0,30.55,West,268,0.0,4.0,73,0.00,,,0.05,Wunderground v.1.15,2013-01-27 23:06:00,
2013-01-27 18:09:00,24.3,17.2,30.55,West,269,0.0,4.0,74,0.00,,,0.05,Wunderground v.1.15,2013-01-27 23:09:00,
2013-01-27 18:11:00,24.2,17.1,30.55,West,268,0.0,0.0,74,0.00,,,0.05,Wunderground v.1.15,2013-01-27 23:11:00,
2013-01-27 18:14:00,24.2,17.1,30.55,West,269,0.0,0.0,74,0.00,,,0.05,Wunderground v.1.15,2013-01-27 23:14:00,
2013-01-27 18:16:00,24.0,17.2,30.55,West,268,0.0,0.0,75,0.00,,,0.05,Wunderground v.1.15,2013-01-27 23:16:00,
2013-01-27 18:17:00,23.9,17.1,30.55,West,269,0.0,0.0,75,0.00,,,0.05,Wunderground v.1.15,2013-01-27 23:17:00,
2013-01-27 18:22:00,23.8,17.0,30.55,West,269,0.0,0.0,75,0.00,,,0.05,Wunderground v.1.15,2013-01-27 23:22:00,
2013-01-27 18:24:00,23.8,17.0,30.55,West,268,0.0,0.0,75,0.00,,,0.05,Wunderground v.1.15,2013-01-27 23:24:00,
2013-01-27 18:26:00,23.8,17.0,30.55,West,269,0.0,0.0,75,0.00,,,0.05,Wunderground v.1.15,2013-01-27 23:26:00,
2013-01-27 18:28:00,23.8,17.0,30.55,West,269,0.0,0.0,75,0.00,,,0.05,Wunderground v.1.15,2013-01-27 23:28:00,
2013-01-27 18:31:00,23.4,16.6,30.55,West,269,0.0,0.0,75,0.00,,,0.05,Wunderground v.1.15,2013-01-27 23:31:00,
2013-01-27 18:32:00,23.4,16.6,30.55,West,269,0.0,0.0,75,0.00,,,0.05,Wunderground v.1.15,2013-01-27 23:32:00,
2013-01-27 18:33:00,23.3,16.9,30.56,West,269,0.0,0.0,76,0.00,,,0.05,Wunderground v.1.15,2013-01-27 23:33:00,
2013-01-27 18:37:00,23.2,16.8,30.55,West,268,0.0,0.0,76,0.00,,,0.05,Wunderground v.1.15,2013-01-27 23:37:00,
2013-01-27 18:39:00,23.2,16.8,30.55,West,268,0.0,0.0,76,0.00,,,0.05,Wunderground v.1.15,2013-01-27 23:39:00,
2013-01-27 18:40:00,23.1,16.7,30.55,West,268,0.0,0.0,76,0.00,,,0.05,Wunderground v.1.15,2013-01-27 23:40:00,
2013-01-27 18:42:00,22.9,16.5,30.55,West,266,0.0,0.0,76,0.00,,,0.05,Wunderground v.1.15,2013-01-27 23:42:00,
2013-01-27 18:46:00,22.8,16.7,30.55,West,261,0.0,0.0,77,0.00,,,0.05,Wunderground v.1.15,2013-01-27 23:46:00,
2013-01-27 18:49:00,22.9,16.8,30.55,WSW,256,0.0,0.0,77,0.00,,,0.05,Wunderground v.1.15,2013-01-27 23:49:00,
2013-01-27 18:51:00,22.9,16.8,30.55,SSW,205,0.0,0.0,77,0.00,,,0.05,Wunderground v.1.15,2013-01-27 23:51:00,
2013-01-27 18:54:00,23.0,16.9,30.54,SSW,205,0.0,0.0,77,0.00,,,0.05,Wunderground v.1.15,2013-01-27 23:54:00,
2013-01-27 18:56:00,23.1,17.3,30.54,SSW,205,0.0,0.0,78,0.00,,,0.05,Wunderground v.1.15,2013-01-27 23:56:00,
2013-01-27 18:59:00,23.4,17.6,30.54,SE,128,0.0,0.0,78,0.00,,,0.05,Wunderground v.1.15,2013-01-27 23:59:00,
2013-01-27 19:01:00,23.7,17.5,30.54,SE,128,0.0,1.0,77,0.00,,,0.05,Wunderground v.1.15,2013-01-28 00:01:00,
2013-01-27 19:04:00,23.9,17.7,30.55,SE,126,0.0,1.0,77,0.00,,,0.05,Wunderground v.1.15,2013-01-28 00:04:00,
2013-01-27 19:06:00,23.9,17.7,30.55,SE,126,0.0,1.0,77,0.00,,,0.05,Wunderground v.1.15,2013-01-28 00:06:00,
2013-01-27 19:07:00,23.9,17.7,30.55,SE,126,0.0,1.0,77,0.00,,,0.05,Wunderground v.1.15,2013-01-28 00:07:00,
2013-01-27 19:09:00,23.9,17.7,30.55,SE,126,0.0,1.0,77,0.00,,,0.05,Wunderground v.1.15,2013-01-28 00:09:00,
2013-01-27 19:10:00,23.9,17.7,30.55,SE,126,0.0,0.0,77,0.00,,,0.05,Wunderground v.1.15,2013-01-28 00:10:00,
2013-01-27 19:14:00,23.9,17.7,30.55,ESE,106,0.0,1.0,77,0.00,,,0.05,Wunderground v.1.15,2013-01-28 00:14:00,
2013-01-27 19:15:00,24.0,17.8,30.55,ESE,114,0.0,1.0,77,0.00,,,0.05,Wunderground v.1.15,2013-01-28 00:15:00,
2013-01-27 19:19:00,23.9,17.7,30.56,SE,128,0.0,1.0,77,0.00,,,0.05,Wunderground v.1.15,2013-01-28 00:19:00,
2013-01-27 19:20:00,23.9,17.7,30.55,ESE,108,0.0,0.0,77,0.00,,,0.05,Wunderground v.1.15,2013-01-28 00:20:00,
2013-01-27 19:22:00,23.9,17.7,30.56,ESE,109,0.0,0.0,77,0.00,,,0.05,Wunderground v.1.15,2013-01-28 00:22:00,
2013-01-27 19:23:00,23.9,17.7,30.56,ESE,109,0.0,0.0,77,0.00,,,0.05,Wunderground v.1.15,2013-01-28 00:23:00,
2013-01-27 19:25:00,23.9,17.7,30.55,ESE,114,0.0,4.0,77,0.00,,,0.05,Wunderground v.1.15,2013-01-28 00:25:00,
2013-01-27 19:29:00,24.1,17.6,30.55,SSE,147,1.0,4.0,76,0.00,,,0.05,Wunderground v.1.15,2013-01-28 00:29:00,
2013-01-27 19:30:00,24.2,17.7,30.55,SSE,147,1.0,1.0,76,0.00,,,0.05,Wunderground v.1.15,2013-01-28 00:30:00,
2013-01-27 19:31:00,24.3,17.8,30.55,SE,146,1.0,4.0,76,0.00,,,0.05,Wunderground v.1.15,2013-01-28 00:31:00,
2013-01-27 19:34:00,24.3,17.8,30.54,SE,130,1.0,4.0,76,0.00,,,0.05,Wunderground v.1.15,2013-01-28 00:34:00,
2013-01-27 19:36:00,24.5,18.0,30.54,East,101,1.0,4.0,76,0.00,,,0.05,Wunderground v.1.15,2013-01-28 00:36:00,
2013-01-27 19:37:00,24.6,18.1,30.54,East,101,1.0,4.0,76,0.00,,,0.05,Wunderground v.1.15,2013-01-28 00:37:00,
2013-01-27 19:40:00,24.8,18.3,30.54,East,95,1.0,1.0,76,0.00,,,0.05,Wunderground v.1.15,2013-01-28 00:40:00,
2013-01-27 19:42:00,25.0,18.5,30.54,SE,129,1.0,1.0,76,0.00,,,0.05,Wunderground v.1.15,2013-01-28 00:42:00,
2013-01-27 19:43:00,25.0,18.5,30.54,SE,128,0.0,1.0,76,0.00,,,0.05,Wunderground v.1.15,2013-01-28 00:43:00,
2013-01-27 19:44:00,25.0,18.5,30.54,ESE,111,0.0,1.0,76,0.00,,,0.05,Wunderground v.1.15,2013-01-28 00:44:00,
2013-01-27 19:46:00,25.0,18.5,30.53,ESE,113,0.0,1.0,76,0.00,,,0.05,Wunderground v.1.15,2013-01-28 00:46:00,
2013-01-27 19:49:00,24.8,18.3,30.54,ESE,105,0.0,1.0,76,0.00,,,0.05,Wunderground v.1.15,2013-01-28 00:49:00,
2013-01-27 19:50:00,24.9,18.4,30.54,ESE,109,0.0,0.0,76,0.00,,,0.05,Wunderground v.1.15,2013-01-28 00:50:00,
2013-01-27 19:51:00,24.9,18.4,30.54,ESE,114,0.0,2.0,76,0.00,,,0.05,Wunderground v.1.15,2013-01-28 00:51:00,
2013-01-27 19:56:00,24.9,18.4,30.53,ESE,121,1.0,2.0,76,0.00,,,0.05,Wunderground v.1.15,2013-01-28 00:56:00,
2013-01-27 19:59:00,25.1,18.6,30.53,East,86,1.0,2.0,76,0.00,,,0.05,Wunderground v.1.15,2013-01-28 00:59:00,
2013-01-27 20:00:00,25.1,18.6,30.53,ESE,111,1.0,1.0,76,0.00,,,0.05,Wunderground v.1.15,2013-01-28 01:00:00,
2013-01-27 20:02:00,25.1,18.6,30.53,ESE,112,1.0,5.0,76,0.00,,,0.05,Wunderground v.1.15,2013-01-28 01:02:00,
2013-01-27 20:04:00,25.0,18.5,30.53,ESE,113,0.0,5.0,76,0.00,,,0.05,Wunderground v.1.15,2013-01-28 01:04:00,
2013-01-27 20:06:00,25.0,18.5,30.53,ESE,114,0.0,5.0,76,0.00,,,0.05,Wunderground v.1.15,2013-01-28 01:06:00,
2013-01-27 20:08:00,25.1,18.6,30.53,ESE,105,0.0,5.0,76,0.00,,,0.05,Wunderground v.1.15,2013-01-28 01:08:00,
2013-01-27 20:11:00,25.1,18.6,30.53,ESE,115,1.0,2.0,76,0.00,,,0.05,Wunderground v.1.15,2013-01-28 01:11:00,
2013-01-27 20:14:00,25.1,18.6,30.53,ESE,109,1.0,2.0,76,0.00,,,0.05,Wunderground v.1.15,2013-01-28 01:14:00,
2013-01-27 20:15:00,25.1,18.6,30.53,East,94,1.0,2.0,76,0.00,,,0.05,Wunderground v.1.15,2013-01-28 01:15:00,
2013-01-27 20:16:00,25.1,18.3,30.53,East,101,1.0,2.0,75,0.00,,,0.05,Wunderground v.1.15,2013-01-28 01:16:00,
2013-01-27 20:20:00,25.1,18.6,30.53,SE,129,0.0,0.0,76,0.00,,,0.05,Wunderground v.1.15,2013-01-28 01:20:00,
2013-01-27 20:21:00,25.1,18.6,30.53,SE,132,0.0,0.0,76,0.00,,,0.05,Wunderground v.1.15,2013-01-28 01:21:00,
2013-01-27 20:24:00,25.0,18.5,30.54,East,96,0.0,0.0,76,0.00,,,0.05,Wunderground v.1.15,2013-01-28 01:24:00,
2013-01-27 20:26:00,24.9,18.4,30.54,East,96,0.0,0.0,76,0.00,,,0.05,Wunderground v.1.15,2013-01-28 01:26:00,
2013-01-27 20:29:00,24.7,18.2,30.54,East,95,0.0,0.0,76,0.00,,,0.05,Wunderground v.1.15,2013-01-28 01:29:00,
2013-01-27 20:30:00,24.6,18.1,30.54,East,98,0.0,0.0,76,0.00,,,0.05,Wunderground v.1.15,2013-01-28 01:30:00,
2013-01-27 20:35:00,24.0,17.8,30.54,ESE,103,0.0,5.0,77,0.00,,,0.05,Wunderground v.1.15,2013-01-28 01:35:00,
2013-01-27 20:37:00,23.7,17.5,30.54,East,96,0.0,5.0,77,0.00,,,0.05,Wunderground v.1.15,2013-01-28 01:37:00,
2013-01-27 20:38:00,23.5,17.6,30.54,East,96,0.0,5.0,78,0.00,,,0.05,Wunderground v.1.15,2013-01-28 01:38:00,
2013-01-27 20:39:00,23.4,17.6,30.55,East,96,0.0,5.0,78,0.00,,,0.05,Wunderground v.1.15,2013-01-28 01:39:00,
2013-01-27 20:41:00,23.2,17.4,30.55,ESE,109,0.0,2.0,78,0.00,,,0.05,Wunderground v.1.15,2013-01-28 01:41:00,
2013-01-27 20:42:00,23.1,17.3,30.54,ESE,107,0.0,4.0,78,0.00,,,0.05,Wunderground v.1.15,2013-01-28 01:42:00,
2013-01-27 20:45:00,23.0,17.2,30.54,ESE,109,1.0,4.0,78,0.00,,,0.05,Wunderground v.1.15,2013-01-28 01:45:00,
2013-01-27 20:47:00,23.1,17.3,30.54,ESE,123,1.0,5.0,78,0.00,,,0.05,Wunderground v.1.15,2013-01-28 01:47:00,
2013-01-27 20:49:00,23.1,17.3,30.54,ESE,117,2.0,5.0,78,0.00,,,0.05,Wunderground v.1.15,2013-01-28 01:49:00,
2013-01-27 20:51:00,23.4,17.6,30.54,ESE,105,3.0,4.0,78,0.00,,,0.05,Wunderground v.1.15,2013-01-28 01:51:00,
2013-01-27 20:52:00,23.5,17.6,30.54,ESE,106,3.0,4.0,78,0.00,,,0.05,Wunderground v.1.15,2013-01-28 01:52:00,
2013-01-27 20:54:00,23.5,17.3,30.54,East,92,2.0,4.0,77,0.00,,,0.05,Wunderground v.1.15,2013-01-28 01:54:00,
2013-01-27 20:59:00,23.4,17.6,30.54,East,101,2.0,4.0,78,0.00,,,0.05,Wunderground v.1.15,2013-01-28 01:59:00,
2013-01-27 21:01:00,23.3,17.5,30.54,ESE,109,2.0,4.0,78,0.00,,,0.05,Wunderground v.1.15,2013-01-28 02:01:00,
2013-01-27 21:02:00,23.2,17.4,30.54,ESE,116,2.0,4.0,78,0.00,,,0.05,Wunderground v.1.15,2013-01-28 02:02:00,
2013-01-27 21:04:00,23.0,17.2,30.54,ESE,111,2.0,4.0,78,0.00,,,0.05,Wunderground v.1.15,2013-01-28 02:04:00,
2013-01-27 21:07:00,23.0,17.2,30.53,SE,128,2.0,5.0,78,0.00,,,0.05,Wunderground v.1.15,2013-01-28 02:07:00,
2013-01-27 21:09:00,23.3,17.5,30.53,ESE,103,2.0,5.0,78,0.00,,,0.05,Wunderground v.1.15,2013-01-28 02:09:00,
2013-01-27 21:10:00,23.4,17.6,30.53,ESE,113,2.0,2.0,78,0.00,,,0.05,Wunderground v.1.15,2013-01-28 02:10:00,
2013-01-27 21:14:00,23.9,18.0,30.54,ESE,117,2.0,5.0,78,0.00,,,0.05,Wunderground v.1.15,2013-01-28 02:14:00,
2013-01-27 21:16:00,23.8,17.9,30.54,ESE,117,1.0,5.0,78,0.00,,,0.05,Wunderground v.1.15,2013-01-28 02:16:00,
2013-01-27 21:18:00,23.8,17.9,30.54,ESE,114,1.0,5.0,78,0.00,,,0.05,Wunderground v.1.15,2013-01-28 02:18:00,
2013-01-27 21:20:00,23.8,17.9,30.54,ESE,114,1.0,1.0,78,0.00,,,0.05,Wunderground v.1.15,2013-01-28 02:20:00,
2013-01-27 21:21:00,23.8,17.9,30.54,ESE,114,1.0,1.0,78,0.00,,,0.05,Wunderground v.1.15,2013-01-28 02:21:00,
2013-01-27 21:22:00,23.8,18.2,30.54,ESE,104,1.0,2.0,79,0.00,,,0.05,Wunderground v.1.15,2013-01-28 02:22:00,
2013-01-27 21:27:00,24.0,18.1,30.54,ESE,103,1.0,2.0,78,0.00,,,0.05,Wunderground v.1.15,2013-01-28 02:27:00,
2013-01-27 21:28:00,24.1,18.2,30.54,East,101,1.0,2.0,78,0.00,,,0.05,Wunderground v.1.15,2013-01-28 02:28:00,
2013-01-27 21:31:00,24.3,18.1,30.54,ESE,121,1.0,5.0,77,0.00,,,0.05,Wunderground v.1.15,2013-01-28 02:31:00,
2013-01-27 21:34:00,24.3,18.1,30.54,ESE,121,1.0,5.0,77,0.00,,,0.05,Wunderground v.1.15,2013-01-28 02:34:00,
2013-01-27 21:36:00,24.4,18.2,30.54,ESE,120,1.0,5.0,77,0.00,,,0.05,Wunderground v.1.15,2013-01-28 02:36:00,
2013-01-27 21:37:00,24.4,18.2,30.54,ESE,106,1.0,5.0,77,0.00,,,0.05,Wunderground v.1.15,2013-01-28 02:37:00,
2013-01-27 21:39:00,24.4,18.2,30.54,ESE,109,1.0,5.0,77,0.00,,,0.05,Wunderground v.1.15,2013-01-28 02:39:00,
2013-01-27 21:40:00,24.3,18.1,30.54,ESE,109,0.0,0.0,77,0.00,,,0.05,Wunderground v.1.15,2013-01-28 02:40:00,
2013-01-27 21:43:00,24.1,17.9,30.54,ESE,119,1.0,2.0,77,0.00,,,0.05,Wunderground v.1.15,2013-01-28 02:43:00,
2013-01-27 21:44:00,24.0,17.8,30.54,ESE,119,1.0,2.0,77,0.00,,,0.05,Wunderground v.1.15,2013-01-28 02:44:00,
2013-01-27 21:47:00,24.1,17.9,30.54,ESE,118,1.0,2.0,77,0.00,,,0.05,Wunderground v.1.15,2013-01-28 02:47:00,
2013-01-27 21:50:00,24.0,18.1,30.54,ESE,113,1.0,1.0,78,0.00,,,0.05,Wunderground v.1.15,2013-01-28 02:50:00,
2013-01-27 21:52:00,24.0,18.1,30.54,ESE,111,1.0,1.0,78,0.00,,,0.05,Wunderground v.1.15,2013-01-28 02:52:00,
2013-01-27 21:54:00,24.0,18.1,30.53,ESE,109,0.0,1.0,78,0.00,,,0.05,Wunderground v.1.15,2013-01-28 02:54:00,
2013-01-27 21:57:00,24.2,18.3,30.53,ESE,109,1.0,2.0,78,0.00,,,0.05,Wunderground v.1.15,2013-01-28 02:57:00,
2013-01-27 21:59:00,24.3,18.1,30.53,ESE,117,1.0,2.0,77,0.00,,,0.05,Wunderground v.1.15,2013-01-28 02:59:00,
2013-01-27 22:02:00,24.4,18.2,30.53,ESE,113,1.0,5.0,77,0.00,,,0.05,Wunderground v.1.15,2013-01-28 03:02:00,
2013-01-27 22:05:00,24.7,18.5,30.53,ESE,111,1.0,5.0,77,0.00,,,0.05,Wunderground v.1.15,2013-01-28 03:05:00,
2013-01-27 22:06:00,24.8,18.6,30.53,ESE,111,1.0,5.0,77,0.00,,,0.05,Wunderground v.1.15,2013-01-28 03:06:00,
2013-01-27 22:08:00,24.9,18.7,30.53,ESE,113,1.0,5.0,77,0.00,,,0.05,Wunderground v.1.15,2013-01-28 03:08:00,
2013-01-27 22:12:00,25.0,18.5,30.53,ESE,107,0.0,4.0,76,0.00,,,0.05,Wunderground v.1.15,2013-01-28 03:12:00,
2013-01-27 22:14:00,25.1,18.6,30.52,ESE,119,1.0,4.0,76,0.00,,,0.05,Wunderground v.1.15,2013-01-28 03:14:00,
2013-01-27 22:17:00,25.1,18.6,30.52,ESE,107,1.0,4.0,76,0.00,,,0.05,Wunderground v.1.15,2013-01-28 03:17:00,
2013-01-27 22:18:00,25.2,18.7,30.52,East,96,1.0,5.0,76,0.00,,,0.05,Wunderground v.1.15,2013-01-28 03:18:00,
2013-01-27 22:22:00,25.3,18.8,30.52,ESE,109,1.0,4.0,76,0.00,,,0.05,Wunderground v.1.15,2013-01-28 03:22:00,
2013-01-27 22:26:00,25.6,19.1,30.52,ESE,121,1.0,4.0,76,0.00,,,0.05,Wunderground v.1.15,2013-01-28 03:26:00,
2013-01-27 22:28:00,25.6,19.1,30.52,ESE,119,1.0,4.0,76,0.00,,,0.05,Wunderground v.1.15,2013-01-28 03:28:00,
2013-01-27 22:29:00,25.6,19.1,30.52,ESE,119,1.0,4.0,76,0.00,,,0.05,Wunderground v.1.15,2013-01-28 03:29:00,
2013-01-27 22:32:00,25.7,19.2,30.52,SE,127,1.0,6.0,76,0.00,,,0.05,Wunderground v.1.15,2013-01-28 03:32:00,
2013-01-27 22:33:00,25.8,19.3,30.52,ESE,121,0.0,6.0,76,0.00,,,0.05,Wunderground v.1.15,2013-01-28 03:33:00,
2013-01-27 22:36:00,25.8,19.3,30.52,SE,128,1.0,6.0,76,0.00,,,0.05,Wunderground v.1.15,2013-01-28 03:36:00,
2013-01-27 22:40:00,25.9,19.1,30.52,SE,135,1.0,4.0,75,0.00,,,0.05,Wunderground v.1.15,2013-01-28 03:40:00,
2013-01-27 22:42:00,26.0,19.2,30.52,SE,136,1.0,4.0,75,0.00,,,0.05,Wunderground v.1.15,2013-01-28 03:42:00,
2013-01-27 22:45:00,26.1,19.3,30.52,SE,136,0.0,4.0,75,0.00,,,0.05,Wunderground v.1.15,2013-01-28 03:45:00,
2013-01-27 22:46:00,26.1,19.3,30.52,SE,140,0.0,4.0,75,0.00,,,0.05,Wunderground v.1.15,2013-01-28 03:46:00,
2013-01-27 22:48:00,26.2,19.4,30.52,ESE,121,0.0,4.0,75,0.00,,,0.05,Wunderground v.1.15,2013-01-28 03:48:00,
2013-01-27 22:51:00,26.2,19.4,30.53,SE,141,0.0,0.0,75,0.00,,,0.05,Wunderground v.1.15,2013-01-28 03:51:00,
2013-01-27 22:52:00,26.2,19.4,30.53,SE,132,0.0,0.0,75,0.00,,,0.05,Wunderground v.1.15,2013-01-28 03:52:00,
2013-01-27 22:53:00,26.3,19.5,30.52,ESE,115,0.0,4.0,75,0.00,,,0.05,Wunderground v.1.15,2013-01-28 03:53:00,
2013-01-27 22:57:00,26.6,19.7,30.53,SE,134,0.0,4.0,75,0.00,,,0.05,Wunderground v.1.15,2013-01-28 03:57:00,
2013-01-27 22:59:00,26.6,19.7,30.53,SSW,198,0.0,4.0,75,0.00,,,0.05,Wunderground v.1.15,2013-01-28 03:59:00,
2013-01-27 23:00:00,26.7,20.1,30.53,SSW,198,0.0,0.0,76,0.00,,,0.05,Wunderground v.1.15,2013-01-28 04:00:00,
2013-01-27 23:03:00,26.7,20.1,30.53,West,273,0.0,6.0,76,0.00,,,0.05,Wunderground v.1.15,2013-01-28 04:03:00,
2013-01-27 23:04:00,26.7,20.1,30.53,WSW,249,0.0,6.0,76,0.00,,,0.05,Wunderground v.1.15,2013-01-28 04:04:00,
2013-01-27 23:08:00,26.9,20.3,30.53,SSE,150,0.0,6.0,76,0.00,,,0.05,Wunderground v.1.15,2013-01-28 04:08:00,
2013-01-27 23:09:00,26.9,20.3,30.53,SSE,165,0.0,6.0,76,0.00,,,0.05,Wunderground v.1.15,2013-01-28 04:09:00,
2013-01-27 23:12:00,27.0,20.4,30.53,South,169,0.0,0.0,76,0.00,,,0.05,Wunderground v.1.15,2013-01-28 04:12:00,
2013-01-27 23:15:00,27.1,20.8,30.53,South,172,0.0,0.0,77,0.00,,,0.05,Wunderground v.1.15,2013-01-28 04:15:00,
2013-01-27 23:16:00,27.1,20.8,30.53,South,173,0.0,0.0,77,0.00,,,0.05,Wunderground v.1.15,2013-01-28 04:16:00,
2013-01-27 23:17:00,27.1,20.8,30.53,South,173,0.0,0.0,77,0.00,,,0.05,Wunderground v.1.15,2013-01-28 04:17:00,
2013-01-27 23:18:00,27.1,20.8,30.53,SSW,210,0.0,0.0,77,0.00,,,0.05,Wunderground v.1.15,2013-01-28 04:18:00,
2013-01-27 23:21:00,27.1,20.8,30.53,SSW,207,0.0,0.0,77,0.00,,,0.05,Wunderground v.1.15,2013-01-28 04:21:00,
2013-01-27 23:24:00,27.2,20.9,30.52,SSW,209,0.0,0.0,77,0.00,,,0.05,Wunderground v.1.15,2013-01-28 04:24:00,
2013-01-27 23:27:00,27.2,20.9,30.52,SE,146,0.0,0.0,77,0.00,,,0.05,Wunderground v.1.15,2013-01-28 04:27:00,
2013-01-27 23:29:00,27.2,20.9,30.52,SE,146,0.0,0.0,77,0.00,,,0.05,Wunderground v.1.15,2013-01-28 04:29:00,
2013-01-27 23:30:00,27.2,20.9,30.51,SE,146,0.0,0.0,77,0.00,,,0.05,Wunderground v.1.15,2013-01-28 04:30:00,
2013-01-27 23:32:00,27.2,20.9,30.51,SE,145,0.0,5.0,77,0.00,,,0.05,Wunderground v.1.15,2013-01-28 04:32:00,
2013-01-27 23:36:00,27.3,21.0,30.52,SSE,168,0.0,5.0,77,0.00,,,0.05,Wunderground v.1.15,2013-01-28 04:36:00,
2013-01-27 23:37:00,27.3,21.0,30.52,SSE,168,0.0,5.0,77,0.00,,,0.05,Wunderground v.1.15,2013-01-28 04:37:00,
2013-01-27 23:38:00,27.3,21.0,30.52,WSW,250,0.0,5.0,77,0.00,,,0.05,Wunderground v.1.15,2013-01-28 04:38:00,
2013-01-27 23:41:00,27.4,21.1,30.52,SSE,148,0.0,1.0,77,0.00,,,0.05,Wunderground v.1.15,2013-01-28 04:41:00,
2013-01-27 23:43:00,27.4,21.4,30.52,SSE,148,0.0,1.0,78,0.00,,,0.05,Wunderground v.1.15,2013-01-28 04:43:00,
2013-01-27 23:47:00,27.4,21.4,30.52,SSE,148,0.0,1.0,78,0.00,,,0.05,Wunderground v.1.15,2013-01-28 04:47:00,
2013-01-27 23:48:00,27.4,21.4,30.52,SSE,153,0.0,1.0,78,0.00,,,0.05,Wunderground v.1.15,2013-01-28 04:48:00,
2013-01-27 23:49:00,27.4,21.4,30.52,SSE,153,0.0,1.0,78,0.00,,,0.05,Wunderground v.1.15,2013-01-28 04:49:00,
2013-01-27 23:52:00,27.4,21.4,30.52,WSW,246,0.0,1.0,78,0.00,,,0.05,Wunderground v.1.15,2013-01-28 04:52:00,
2013-01-27 23:55:00,27.3,21.6,30.51,WSW,246,0.0,1.0,79,0.00,,,0.05,Wunderground v.1.15,2013-01-28 04:55:00,
2013-01-27 23:58:00,27.4,21.7,30.51,WSW,242,0.0,1.0,79,0.00,,,0.05,Wunderground v.1.15,2013-01-28 04:58:00,
2013-01-27 23:59:00,27.4,21.7,30.51,SSE,148,0.0,1.0,79,0.00,,,0.05,Wunderground v.1.15,2013-01-28 04:59:00,